UAE5WR KORD-OMDB

Flight info

Callsign UAE5WR
Flight time N/A
Altitude 29000
Route EBAKE DCT WISMO DCT POSTS DCT PADDE DCT SVM Q907 DERLO DCT DEDKI Q913 RAKAM DCT TOPPS/N0491F310 N435B ELSIR/M085F320 NATQ SOVED/N0487F330 DCT LUTOV DCT MAKUX DCT SOSIM L15 MOTOX DCT RUCAC DCT LESDO DCT ETINO DCT DEVDI/N0481F350 DCT RIPUS DCT RESIA DCT BELOV DCT LATAN DCT SALUN N705 MMA P751 DASUM Y234 FYM M872 TULOK/N0496F370 M872 BDB Y214 RAPMA DCT KUVSO DCT KATIT DCT PEKEM M628 RIGIL G783 ELUDA/N0500F350 G783 ASPED Q308 KIPOK Q568 IMPED
Aircraft B77W/H-SDE1E2E3FGHIJ2J3J4J5M1RWXY/LB1D1

Departure

Time N/A
Airport Chicago O'Hare International Airport (KORD)

Arrival

Time 2026-04-26 13:19
Airport Dubai International Airport (OMDB)
Time Latitude Longitude Altitude Speed Heading
2026-04-26 03:44 52.85050 -36.34648 31824 ft 524 kts 76°
2026-04-26 03:44 52.86260 -36.28965 31824 ft 524 kts 76°
2026-04-26 03:44 52.88662 -36.17647 31824 ft 524 kts 76°
2026-04-26 03:45 52.91072 -36.06213 31825 ft 525 kts 76°
2026-04-26 03:45 52.93465 -35.94791 31822 ft 525 kts 76°
2026-04-26 03:46 52.95844 -35.83362 31825 ft 525 kts 76°
2026-04-26 03:47 52.99408 -35.66140 31854 ft 526 kts 76°
2026-04-26 03:47 53.01769 -35.54627 31864 ft 527 kts 76°
2026-04-26 03:48 53.04123 -35.43106 31866 ft 527 kts 76°
2026-04-26 03:48 53.06471 -35.31554 31869 ft 527 kts 76°
2026-04-26 03:49 53.08791 -35.20070 31875 ft 527 kts 76°
2026-04-26 03:49 53.11114 -35.08476 31870 ft 527 kts 76°
2026-04-26 03:50 53.13424 -34.96885 31872 ft 528 kts 76°
2026-04-26 03:50 53.15726 -34.85276 31873 ft 528 kts 76°
2026-04-26 03:51 53.18023 -34.73637 31882 ft 528 kts 76°
2026-04-26 03:51 53.20303 -34.61996 31879 ft 528 kts 76°
2026-04-26 03:52 53.22564 -34.50400 31876 ft 528 kts 76°
2026-04-26 03:52 53.24829 -34.38718 31883 ft 528 kts 76°
2026-04-26 03:53 53.27076 -34.27018 31881 ft 529 kts 76°
2026-04-26 03:53 53.29313 -34.15317 31888 ft 529 kts 76°
2026-04-26 03:54 53.31538 -34.03603 31889 ft 529 kts 76°
2026-04-26 03:54 53.33755 -33.91863 31885 ft 529 kts 75°
2026-04-26 03:55 53.35961 -33.80087 31892 ft 530 kts 76°
2026-04-26 03:55 53.38162 -33.68292 31888 ft 530 kts 76°
2026-04-26 03:56 53.40329 -33.56581 31891 ft 530 kts 76°
2026-04-26 03:56 53.42511 -33.44754 31900 ft 531 kts 76°
2026-04-26 03:57 53.44683 -33.32906 31895 ft 531 kts 76°
2026-04-26 03:57 53.46838 -33.21046 31898 ft 532 kts 76°
2026-04-26 03:58 53.48984 -33.09150 31897 ft 532 kts 76°
2026-04-26 03:58 53.51123 -32.97246 31898 ft 532 kts 76°
2026-04-26 03:59 53.53245 -32.85332 31897 ft 532 kts 76°
2026-04-26 03:59 53.55343 -32.73468 31905 ft 532 kts 76°
2026-04-26 04:00 53.57443 -32.61521 31911 ft 533 kts 76°
2026-04-26 04:00 53.59538 -32.49552 31911 ft 534 kts 75°
2026-04-26 04:01 53.61621 -32.37554 31912 ft 534 kts 75°
2026-04-26 04:01 53.63696 -32.25525 31908 ft 534 kts 75°
2026-04-26 04:02 53.65756 -32.13488 31910 ft 534 kts 75°
2026-04-26 04:02 53.67803 -32.01448 31911 ft 535 kts 75°
2026-04-26 04:03 53.69843 -31.89381 31917 ft 535 kts 75°
2026-04-26 04:03 53.71867 -31.77302 31917 ft 535 kts 76°
2026-04-26 04:04 53.73881 -31.65212 31916 ft 535 kts 76°
2026-04-26 04:04 53.75884 -31.53114 31911 ft 534 kts 76°
2026-04-26 04:05 53.77869 -31.41024 31915 ft 532 kts 76°
2026-04-26 04:05 53.79837 -31.28955 31920 ft 532 kts 76°
2026-04-26 04:06 53.81789 -31.16883 31912 ft 532 kts 76°
2026-04-26 04:06 53.83717 -31.04893 31925 ft 531 kts 76°
2026-04-26 04:07 53.85644 -30.92817 31927 ft 530 kts 76°
2026-04-26 04:07 53.87560 -30.80735 31920 ft 530 kts 76°
2026-04-26 04:08 53.89459 -30.68663 31930 ft 530 kts 76°
2026-04-26 04:08 53.91344 -30.56600 31926 ft 529 kts 76°
2026-04-26 04:09 53.93217 -30.44522 31922 ft 529 kts 76°
2026-04-26 04:09 53.95075 -30.32451 31922 ft 529 kts 76°
2026-04-26 04:10 53.96922 -30.20368 31922 ft 528 kts 76°
2026-04-26 04:10 53.98743 -30.08361 31924 ft 528 kts 76°
2026-04-26 04:11 54.00810 -29.96366 31925 ft 528 kts 68°
2026-04-26 04:11 54.03701 -29.84879 31928 ft 528 kts 66°
2026-04-26 04:12 54.06646 -29.73425 31945 ft 529 kts 66°
2026-04-26 04:12 54.09555 -29.61901 31926 ft 530 kts 67°
2026-04-26 04:13 54.12429 -29.50319 31933 ft 529 kts 67°
2026-04-26 04:13 54.15280 -29.38734 31946 ft 529 kts 67°
2026-04-26 04:14 54.18119 -29.27156 31929 ft 528 kts 67°
2026-04-26 04:14 54.20940 -29.15584 31945 ft 527 kts 67°
2026-04-26 04:15 54.23733 -29.04089 31932 ft 526 kts 68°
2026-04-26 04:15 54.26521 -28.92533 31930 ft 525 kts 68°
2026-04-26 04:16 54.29298 -28.80974 31947 ft 524 kts 68°
2026-04-26 04:16 54.32063 -28.69402 31932 ft 524 kts 68°
2026-04-26 04:17 54.34813 -28.57825 31928 ft 524 kts 68°
2026-04-26 04:17 54.37546 -28.46257 31948 ft 523 kts 68°
2026-04-26 04:18 54.40264 -28.34688 31936 ft 523 kts 68°
2026-04-26 04:18 54.42961 -28.23164 31948 ft 523 kts 68°
2026-04-26 04:19 54.45660 -28.11556 31950 ft 523 kts 68°
2026-04-26 04:19 54.48351 -27.99933 31932 ft 523 kts 68°
2026-04-26 04:20 54.51023 -27.88289 31948 ft 523 kts 69°
2026-04-26 04:20 54.53694 -27.76613 31946 ft 524 kts 69°
2026-04-26 04:21 54.55908 -27.66899 31946 ft 524 kts 68°
2026-04-26 04:21 54.58554 -27.55219 31929 ft 523 kts 69°
2026-04-26 04:22 54.61190 -27.43504 31935 ft 524 kts 69°
2026-04-26 04:22 54.63817 -27.31776 31950 ft 524 kts 69°
2026-04-26 04:23 54.66435 -27.20025 31949 ft 524 kts 69°
2026-04-26 04:23 54.69025 -27.08322 31955 ft 524 kts 69°
2026-04-26 04:24 54.71615 -26.96549 31981 ft 524 kts 69°
2026-04-26 04:24 54.74192 -26.84774 32043 ft 523 kts 69°
2026-04-26 04:25 54.76763 -26.72961 32044 ft 524 kts 69°
2026-04-26 04:25 54.79323 -26.61131 32046 ft 524 kts 69°
2026-04-26 04:26 54.81877 -26.49265 32052 ft 526 kts 69°
2026-04-26 04:26 54.84423 -26.37372 32047 ft 527 kts 69°
2026-04-26 04:27 54.86948 -26.25515 32038 ft 527 kts 69°
2026-04-26 04:27 54.89486 -26.13500 32037 ft 526 kts 69°
2026-04-26 04:28 54.91983 -26.01612 32036 ft 526 kts 69°
2026-04-26 04:28 54.94481 -25.89655 32051 ft 525 kts 69°
2026-04-26 04:29 54.96968 -25.77681 32080 ft 526 kts 69°
2026-04-26 04:29 54.99430 -25.65755 32086 ft 526 kts 69°
2026-04-26 04:30 55.01899 -25.53734 32082 ft 527 kts 69°
2026-04-26 04:30 55.04358 -25.41677 32085 ft 528 kts 69°
2026-04-26 04:31 55.06809 -25.29589 32071 ft 529 kts 69°
2026-04-26 04:31 55.09253 -25.17468 32064 ft 529 kts 69°
2026-04-26 04:32 55.11680 -25.05345 32062 ft 528 kts 69°
2026-04-26 04:32 55.14095 -24.93211 32065 ft 528 kts 69°
2026-04-26 04:33 55.16484 -24.81147 32064 ft 528 kts 69°
2026-04-26 04:33 55.18873 -24.68990 32066 ft 529 kts 69°
2026-04-26 04:34 55.21251 -24.56808 32066 ft 529 kts 69°
2026-04-26 04:34 55.23627 -24.44604 32064 ft 530 kts 69°
2026-04-26 04:35 55.25984 -24.32365 32064 ft 530 kts 70°
2026-04-26 04:35 55.28336 -24.20089 32066 ft 531 kts 70°
2026-04-26 04:36 55.30677 -24.07787 32065 ft 532 kts 70°
2026-04-26 04:36 55.33012 -23.95454 32064 ft 532 kts 69°
2026-04-26 04:37 55.35334 -23.83098 32066 ft 532 kts 70°
2026-04-26 04:37 55.37625 -23.70818 32064 ft 532 kts 70°
2026-04-26 04:38 55.39931 -23.58422 32066 ft 532 kts 70°
2026-04-26 04:38 55.42220 -23.46003 32065 ft 533 kts 70°
2026-04-26 04:39 55.44493 -23.33587 32065 ft 533 kts 70°
2026-04-26 04:39 55.46735 -23.21246 32066 ft 532 kts 70°
2026-04-26 04:40 55.48981 -23.08811 32063 ft 532 kts 70°
2026-04-26 04:40 55.51215 -22.96368 32067 ft 532 kts 70°
2026-04-26 04:41 55.53437 -22.83903 32062 ft 532 kts 70°
2026-04-26 04:41 55.55646 -22.71413 32065 ft 533 kts 70°
2026-04-26 04:42 55.57848 -22.58899 32067 ft 533 kts 70°
2026-04-26 04:42 55.60039 -22.46347 32070 ft 535 kts 71°
2026-04-26 04:43 55.62203 -22.33837 32074 ft 535 kts 70°
2026-04-26 04:43 55.64375 -22.21230 32076 ft 536 kts 70°
2026-04-26 04:44 55.66537 -22.08592 32072 ft 536 kts 70°
2026-04-26 04:44 55.68685 -21.95940 32076 ft 536 kts 71°
2026-04-26 04:45 55.70824 -21.83246 32074 ft 537 kts 71°
2026-04-26 04:45 55.72953 -21.70529 32089 ft 537 kts 71°
2026-04-26 04:46 55.75060 -21.57838 32082 ft 536 kts 71°
2026-04-26 04:46 55.77155 -21.45122 32084 ft 536 kts 71°
2026-04-26 04:47 55.79223 -21.32484 32085 ft 536 kts 72°
2026-04-26 04:47 55.81289 -21.19770 32082 ft 534 kts 72°
2026-04-26 04:48 55.84355 -21.00723 32083 ft 533 kts 72°
2026-04-26 04:48 55.86381 -20.88012 32083 ft 532 kts 73°
2026-04-26 04:49 55.88387 -20.75326 32083 ft 532 kts 73°
2026-04-26 04:49 55.90369 -20.62708 32081 ft 532 kts 73°
2026-04-26 04:50 55.92352 -20.49999 32085 ft 531 kts 73°
2026-04-26 04:50 55.94319 -20.37289 32083 ft 531 kts 73°
2026-04-26 04:51 55.96271 -20.24565 32085 ft 531 kts 74°
2026-04-26 04:51 55.98213 -20.11826 32094 ft 531 kts 74°
2026-04-26 04:52 55.99898 -19.98970 32085 ft 533 kts 81°
2026-04-26 04:52 56.00380 -19.85772 32102 ft 533 kts 89°
2026-04-26 04:53 56.00552 -19.72540 32102 ft 533 kts 89°
2026-04-26 04:53 56.00743 -19.59283 32115 ft 533 kts 89°
2026-04-26 04:54 56.00954 -19.46139 32099 ft 533 kts 89°
2026-04-26 04:54 56.01162 -19.32925 32100 ft 531 kts 90°
2026-04-26 04:55 56.01355 -19.19751 32098 ft 529 kts 90°
2026-04-26 04:55 56.01527 -19.06625 32101 ft 526 kts 90°
2026-04-26 04:56 56.01683 -18.93575 32096 ft 524 kts 91°
2026-04-26 04:56 56.01828 -18.80560 32100 ft 523 kts 91°
2026-04-26 04:57 56.01962 -18.67567 32102 ft 523 kts 91°
2026-04-26 04:57 56.02077 -18.54650 32099 ft 524 kts 91°
2026-04-26 04:58 56.02181 -18.41630 32114 ft 524 kts 91°
2026-04-26 04:58 56.02271 -18.28546 32101 ft 526 kts 92°
2026-04-26 04:59 56.02347 -18.15457 32099 ft 526 kts 92°
2026-04-26 04:59 56.02408 -18.02360 32099 ft 527 kts 92°
2026-04-26 05:00 56.02457 -17.89351 32116 ft 526 kts 92°
2026-04-26 05:00 56.02495 -17.76261 32102 ft 526 kts 92°
2026-04-26 05:01 56.02518 -17.63168 32117 ft 526 kts 92°
2026-04-26 05:01 56.02523 -17.50092 32110 ft 525 kts 93°
2026-04-26 05:02 56.02515 -17.37041 32116 ft 523 kts 93°
2026-04-26 05:02 56.02497 -17.24055 32107 ft 522 kts 93°
2026-04-26 05:03 56.02461 -17.11170 32125 ft 520 kts 94°
2026-04-26 05:03 56.02414 -16.98251 32113 ft 518 kts 94°
2026-04-26 05:04 56.02355 -16.85381 32118 ft 516 kts 94°
2026-04-26 05:04 56.02280 -16.72551 32128 ft 515 kts 95°
2026-04-26 05:05 56.02194 -16.59756 32156 ft 515 kts 95°
2026-04-26 05:05 56.02096 -16.46956 32158 ft 515 kts 95°
2026-04-26 05:06 56.01983 -16.34227 32161 ft 515 kts 95°
2026-04-26 05:06 56.01856 -16.21401 32169 ft 516 kts 95°
2026-04-26 05:07 56.01714 -16.08548 32167 ft 517 kts 95°
2026-04-26 05:07 56.01561 -15.95682 32165 ft 518 kts 95°
2026-04-26 05:08 56.01394 -15.82815 32168 ft 518 kts 95°
2026-04-26 05:08 56.01211 -15.69933 32166 ft 518 kts 95°
2026-04-26 05:09 56.01021 -15.57070 32163 ft 517 kts 95°
2026-04-26 05:09 56.00816 -15.44323 32166 ft 515 kts 96°
2026-04-26 05:10 56.00592 -15.31538 32170 ft 513 kts 96°
2026-04-26 05:10 56.00367 -15.18822 32174 ft 512 kts 96°
2026-04-26 05:11 56.00123 -15.06120 32176 ft 510 kts 96°
2026-04-26 05:11 55.99923 -14.93465 32173 ft 510 kts 94°
2026-04-26 05:12 55.99970 -14.82922 32174 ft 511 kts 92°
2026-04-26 05:12 56.00067 -14.70243 32177 ft 510 kts 93°
2026-04-26 05:13 56.00105 -14.55505 32177 ft 510 kts 93°
2026-04-26 05:13 56.00104 -14.44905 32173 ft 509 kts 94°
2026-04-26 05:14 56.00087 -14.32254 32175 ft 508 kts 94°
2026-04-26 05:14 56.00063 -14.19630 32176 ft 508 kts 94°
2026-04-26 05:15 56.00013 -14.07085 32175 ft 507 kts 95°
2026-04-26 05:15 55.99100 -13.94653 32217 ft 504 kts 107°
2026-04-26 05:16 55.98147 -13.88648 32441 ft 501 kts 111°
2026-04-26 05:16 55.97095 -13.82730 32801 ft 498 kts 111°
2026-04-26 05:16 55.96046 -13.76832 33096 ft 497 kts 111°
2026-04-26 05:16 55.94999 -13.70928 33133 ft 500 kts 111°
2026-04-26 05:17 55.92918 -13.59088 33173 ft 499 kts 111°
2026-04-26 05:17 55.90872 -13.47390 33171 ft 496 kts 111°
2026-04-26 05:18 55.88813 -13.35688 33169 ft 493 kts 111°
2026-04-26 05:18 55.86744 -13.24022 33181 ft 494 kts 111°
2026-04-26 05:19 55.84654 -13.12310 33181 ft 496 kts 112°
2026-04-26 05:19 55.82548 -13.00570 33177 ft 499 kts 112°
2026-04-26 05:20 55.80433 -12.88880 33176 ft 500 kts 112°
2026-04-26 05:20 55.78289 -12.77094 33177 ft 501 kts 112°
2026-04-26 05:21 55.76136 -12.65323 33171 ft 501 kts 112°
2026-04-26 05:21 55.73973 -12.53573 33174 ft 500 kts 112°
2026-04-26 05:22 55.71805 -12.41861 33178 ft 499 kts 112°
2026-04-26 05:22 55.69631 -12.30204 33174 ft 498 kts 112°
2026-04-26 05:23 55.67445 -12.18558 33171 ft 497 kts 113°
2026-04-26 05:23 55.65265 -12.07017 33175 ft 497 kts 113°
2026-04-26 05:24 55.63062 -11.95433 33177 ft 497 kts 113°
2026-04-26 05:24 55.60847 -11.83835 33180 ft 497 kts 113°
2026-04-26 05:25 55.58621 -11.72241 33182 ft 498 kts 113°
2026-04-26 05:25 55.56375 -11.60646 33179 ft 498 kts 113°
2026-04-26 05:26 55.54117 -11.49063 33176 ft 498 kts 113°
2026-04-26 05:26 55.51854 -11.37493 33170 ft 498 kts 113°
2026-04-26 05:27 55.49582 -11.25941 33175 ft 499 kts 114°
2026-04-26 05:27 55.47292 -11.14379 33179 ft 499 kts 114°
2026-04-26 05:28 55.45005 -11.02912 33175 ft 499 kts 114°
2026-04-26 05:28 55.42688 -10.91359 33177 ft 500 kts 114°
2026-04-26 05:29 55.40365 -10.79828 33221 ft 499 kts 114°
2026-04-26 05:29 55.38034 -10.68329 33225 ft 499 kts 114°
2026-04-26 05:30 55.35683 -10.56819 33232 ft 500 kts 114°
2026-04-26 05:30 55.33330 -10.45317 33229 ft 500 kts 114°
2026-04-26 05:31 55.30953 -10.33830 33229 ft 500 kts 114°
2026-04-26 05:31 55.28573 -10.22348 33231 ft 500 kts 114°
2026-04-26 05:32 55.26198 -10.10961 33229 ft 500 kts 114°
2026-04-26 05:32 55.23784 -9.99449 33233 ft 500 kts 114°
2026-04-26 05:33 55.21330 -9.88140 33230 ft 499 kts 115°
2026-04-26 05:33 55.18813 -9.76805 33243 ft 500 kts 115°
2026-04-26 05:34 55.16285 -9.65441 33240 ft 501 kts 115°
2026-04-26 05:34 55.13752 -9.54085 33242 ft 501 kts 115°
2026-04-26 05:35 55.11209 -9.42720 33242 ft 503 kts 115°
2026-04-26 05:35 55.08647 -9.31344 33237 ft 503 kts 115°
2026-04-26 05:36 55.06074 -9.19976 33236 ft 503 kts 115°
2026-04-26 05:36 55.03495 -9.08635 33241 ft 503 kts 116°
2026-04-26 05:37 55.00920 -8.97366 33230 ft 503 kts 116°
2026-04-26 05:37 54.98316 -8.86044 33232 ft 503 kts 116°
2026-04-26 05:38 54.95705 -8.74755 33232 ft 503 kts 116°
2026-04-26 05:38 54.93087 -8.63477 33233 ft 502 kts 116°
2026-04-26 05:39 54.90453 -8.52219 33242 ft 502 kts 116°
2026-04-26 05:39 54.87813 -8.40980 33242 ft 502 kts 116°
2026-04-26 05:40 54.85163 -8.29749 33242 ft 503 kts 116°
2026-04-26 05:40 54.82501 -8.18532 33241 ft 503 kts 116°
2026-04-26 05:41 54.79837 -8.07378 33238 ft 504 kts 116°
2026-04-26 05:41 54.77146 -7.96157 33226 ft 504 kts 116°
2026-04-26 05:42 54.74442 -7.84937 33231 ft 505 kts 116°
2026-04-26 05:42 54.71725 -7.73726 33232 ft 506 kts 116°
2026-04-26 05:43 54.68989 -7.62489 33230 ft 506 kts 116°
2026-04-26 05:43 54.66249 -7.51291 33230 ft 506 kts 116°
2026-04-26 05:44 54.63495 -7.40106 33230 ft 506 kts 116°
2026-04-26 05:44 54.60730 -7.28912 33228 ft 507 kts 116°
2026-04-26 05:45 54.57973 -7.17819 33228 ft 506 kts 116°
2026-04-26 05:45 54.55185 -7.06667 33231 ft 506 kts 116°
2026-04-26 05:46 54.52389 -6.95545 33233 ft 507 kts 116°
2026-04-26 05:46 54.49575 -6.84417 33227 ft 508 kts 116°
2026-04-26 05:47 54.46754 -6.73265 33233 ft 509 kts 116°
2026-04-26 05:47 54.43917 -6.62120 33226 ft 510 kts 116°
2026-04-26 05:48 54.41050 -6.50949 33231 ft 511 kts 116°
2026-04-26 05:48 54.38194 -6.39860 33228 ft 512 kts 116°
2026-04-26 05:49 54.33856 -6.23108 33241 ft 513 kts 116°
2026-04-26 05:50 54.30945 -6.11933 33243 ft 514 kts 116°
2026-04-26 05:50 54.28020 -6.00775 33242 ft 514 kts 116°
2026-04-26 05:51 54.25082 -5.89612 33242 ft 514 kts 117°
2026-04-26 05:51 54.22142 -5.78497 33236 ft 514 kts 117°
2026-04-26 05:52 54.19180 -5.67371 33235 ft 513 kts 117°
2026-04-26 05:52 54.16218 -5.56279 33237 ft 513 kts 117°
2026-04-26 05:53 54.13274 -5.45295 33236 ft 511 kts 117°
2026-04-26 05:53 54.10304 -5.34279 33241 ft 511 kts 117°
2026-04-26 05:54 54.07327 -5.23306 33237 ft 510 kts 117°
2026-04-26 05:54 54.04353 -5.12358 33240 ft 509 kts 117°
2026-04-26 05:55 54.01364 -5.01457 33236 ft 508 kts 117°
2026-04-26 05:55 53.98359 -4.90583 33237 ft 507 kts 119°
2026-04-26 05:56 53.94630 -4.80487 33239 ft 503 kts 130°
2026-04-26 05:56 53.90421 -4.71084 33251 ft 503 kts 130°
2026-04-26 05:57 53.86217 -4.61568 33244 ft 505 kts 129°
2026-04-26 05:57 53.82039 -4.52026 33239 ft 505 kts 129°
2026-04-26 05:58 53.77852 -4.42489 33238 ft 505 kts 129°
2026-04-26 05:58 53.73668 -4.32954 33245 ft 504 kts 129°
2026-04-26 05:59 53.69486 -4.23453 33260 ft 504 kts 129°
2026-04-26 05:59 53.65300 -4.13989 33251 ft 503 kts 129°
2026-04-26 06:00 53.61103 -4.04554 33262 ft 502 kts 130°
2026-04-26 06:00 53.57594 -3.96753 33265 ft 502 kts 130°
2026-04-26 06:01 53.53370 -3.87401 33246 ft 502 kts 130°
2026-04-26 06:01 53.49136 -3.78044 33246 ft 503 kts 130°
2026-04-26 06:02 53.44890 -3.68682 33250 ft 503 kts 130°
2026-04-26 06:02 53.40615 -3.59393 33243 ft 502 kts 133°
2026-04-26 06:03 53.35990 -3.50627 33241 ft 502 kts 134°
2026-04-26 06:03 53.31395 -3.41895 33242 ft 503 kts 134°
2026-04-26 06:04 53.26770 -3.33119 33230 ft 503 kts 134°
2026-04-26 06:04 53.22122 -3.24332 33225 ft 505 kts 134°
2026-04-26 06:05 53.17462 -3.15558 33215 ft 505 kts 134°
2026-04-26 06:05 53.12798 -3.06810 33205 ft 504 kts 134°
2026-04-26 06:06 53.08123 -2.98070 33192 ft 505 kts 134°
2026-04-26 06:06 53.03485 -2.89414 33198 ft 505 kts 134°
2026-04-26 06:07 52.98811 -2.80738 33225 ft 504 kts 134°
2026-04-26 06:07 52.94120 -2.72052 33265 ft 506 kts 134°
2026-04-26 06:08 52.89411 -2.63358 33275 ft 508 kts 134°
2026-04-26 06:08 52.84669 -2.54633 33285 ft 510 kts 134°
2026-04-26 06:09 52.79897 -2.45885 33290 ft 511 kts 134°
2026-04-26 06:09 52.75117 -2.37175 33291 ft 512 kts 134°
2026-04-26 06:10 52.70360 -2.28527 33299 ft 512 kts 134°
2026-04-26 06:10 52.65564 -2.19838 33306 ft 512 kts 134°
2026-04-26 06:11 52.60757 -2.11161 33314 ft 512 kts 134°
2026-04-26 06:11 52.55954 -2.02523 33314 ft 511 kts 134°
2026-04-26 06:12 52.51150 -1.93911 33321 ft 511 kts 134°
2026-04-26 06:12 52.46336 -1.85313 33327 ft 512 kts 134°
2026-04-26 06:13 52.41511 -1.76713 33323 ft 513 kts 134°
2026-04-26 06:13 52.36707 -1.68185 33323 ft 513 kts 134°
2026-04-26 06:14 52.31827 -1.59685 33325 ft 513 kts 135°
2026-04-26 06:14 52.26877 -1.51283 33315 ft 513 kts 136°
2026-04-26 06:15 52.21921 -1.42881 33315 ft 514 kts 135°
2026-04-26 06:15 52.16969 -1.34490 33315 ft 513 kts 135°
2026-04-26 06:16 52.12011 -1.26104 33302 ft 513 kts 136°
2026-04-26 06:16 52.07059 -1.17753 33303 ft 513 kts 136°
2026-04-26 06:17 52.02128 -1.09486 33302 ft 512 kts 136°
2026-04-26 06:17 51.97067 -1.01231 33305 ft 512 kts 136°
2026-04-26 06:18 51.92152 -0.93002 33307 ft 511 kts 135°
2026-04-26 06:18 51.87215 -0.84716 33313 ft 510 kts 135°
2026-04-26 06:19 51.82262 -0.76480 33312 ft 510 kts 135°
2026-04-26 06:19 51.77308 -0.68285 33305 ft 510 kts 136°
2026-04-26 06:20 51.72329 -0.60099 33316 ft 510 kts 136°
2026-04-26 06:20 51.67348 -0.51942 33324 ft 510 kts 136°
2026-04-26 06:21 51.62339 -0.43761 33324 ft 509 kts 136°
2026-04-26 06:21 51.57358 -0.35648 33324 ft 510 kts 136°
2026-04-26 06:22 51.52360 -0.27531 33323 ft 510 kts 136°
2026-04-26 06:22 51.47333 -0.19393 33323 ft 510 kts 136°
2026-04-26 06:23 51.42332 -0.11324 33323 ft 510 kts 136°
2026-04-26 06:23 51.37323 -0.03269 33319 ft 510 kts 135°
2026-04-26 06:24 51.32961 0.05657 33326 ft 510 kts 121°
2026-04-26 06:24 51.29834 0.15812 33324 ft 509 kts 111°
2026-04-26 06:25 51.27239 0.26311 33326 ft 508 kts 111°
2026-04-26 06:25 51.24629 0.36728 33315 ft 506 kts 111°
2026-04-26 06:26 51.21966 0.47130 33325 ft 506 kts 112°
2026-04-26 06:26 51.19290 0.57483 33320 ft 505 kts 112°
2026-04-26 06:27 51.16601 0.67843 33323 ft 505 kts 112°
2026-04-26 06:27 51.13912 0.78176 33323 ft 505 kts 112°
2026-04-26 06:28 51.11213 0.88504 33321 ft 505 kts 112°
2026-04-26 06:28 51.08507 0.98804 33323 ft 505 kts 112°
2026-04-26 06:29 51.05796 1.09089 33320 ft 504 kts 112°
2026-04-26 06:29 51.03079 1.19358 33324 ft 504 kts 112°
2026-04-26 06:30 51.00374 1.29556 33319 ft 504 kts 112°
2026-04-26 06:30 50.97639 1.39820 33312 ft 504 kts 112°
2026-04-26 06:31 50.94902 1.50029 33314 ft 504 kts 112°
2026-04-26 06:31 50.92113 1.60259 33311 ft 504 kts 113°
2026-04-26 06:32 50.89167 1.70328 33302 ft 504 kts 120°
2026-04-26 06:32 50.85025 1.79244 33312 ft 503 kts 133°
2026-04-26 06:33 50.80000 1.86854 33322 ft 503 kts 137°
2026-04-26 06:33 50.74850 1.94472 33307 ft 504 kts 137°
2026-04-26 06:34 50.69779 2.02040 33316 ft 505 kts 137°
2026-04-26 06:34 50.64671 2.09679 33305 ft 505 kts 137°
2026-04-26 06:35 50.59574 2.17289 33302 ft 505 kts 137°
2026-04-26 06:35 50.54469 2.24879 33304 ft 505 kts 137°
2026-04-26 06:36 50.49354 2.32452 33305 ft 505 kts 137°
2026-04-26 06:36 50.44233 2.40014 33306 ft 505 kts 137°
2026-04-26 06:37 50.39146 2.47505 33311 ft 505 kts 137°
2026-04-26 06:37 50.34018 2.55030 33307 ft 505 kts 137°
2026-04-26 06:38 50.28886 2.62541 33302 ft 505 kts 137°
2026-04-26 06:38 50.23756 2.70027 33305 ft 504 kts 137°
2026-04-26 06:39 50.18623 2.77487 33302 ft 503 kts 137°
2026-04-26 06:39 50.13497 2.84923 33301 ft 503 kts 137°
2026-04-26 06:40 50.08374 2.92324 33292 ft 501 kts 137°
2026-04-26 06:40 50.03263 2.99685 33293 ft 499 kts 137°
2026-04-26 06:41 49.98164 3.07011 33290 ft 498 kts 137°
2026-04-26 06:41 49.93938 3.13068 33295 ft 498 kts 137°
2026-04-26 06:42 49.88843 3.20348 33291 ft 498 kts 138°
2026-04-26 06:42 49.83742 3.27618 33286 ft 498 kts 138°
2026-04-26 06:43 49.78888 3.35262 33278 ft 498 kts 129°
2026-04-26 06:43 49.74620 3.43677 33291 ft 497 kts 128°
2026-04-26 06:44 49.70371 3.52042 33286 ft 497 kts 128°
2026-04-26 06:44 49.66045 3.60447 33279 ft 497 kts 129°
2026-04-26 06:45 49.61742 3.68742 33274 ft 497 kts 129°
2026-04-26 06:45 49.57414 3.77057 33272 ft 497 kts 129°
2026-04-26 06:46 49.53083 3.85353 33274 ft 496 kts 129°
2026-04-26 06:46 49.48752 3.93628 33276 ft 496 kts 129°
2026-04-26 06:47 49.44449 4.01835 33270 ft 496 kts 129°
2026-04-26 06:47 49.40103 4.10075 33264 ft 496 kts 129°
2026-04-26 06:48 49.35763 4.18293 33265 ft 495 kts 130°
2026-04-26 06:48 49.31420 4.26487 33265 ft 494 kts 130°
2026-04-26 06:49 49.27073 4.34657 33264 ft 494 kts 130°
2026-04-26 06:49 49.22730 4.42802 33269 ft 493 kts 130°
2026-04-26 06:50 49.18387 4.50921 33265 ft 493 kts 130°
2026-04-26 06:50 49.14039 4.59033 33271 ft 493 kts 130°
2026-04-26 06:51 49.09707 4.67079 33247 ft 493 kts 130°
2026-04-26 06:51 49.03155 4.79212 33248 ft 494 kts 130°
2026-04-26 06:52 48.98781 4.87276 33250 ft 494 kts 130°
2026-04-26 06:52 48.94403 4.95329 33241 ft 494 kts 130°
2026-04-26 06:53 48.90023 5.03361 33239 ft 493 kts 131°
2026-04-26 06:53 48.85967 5.11782 33237 ft 494 kts 124°
2026-04-26 06:54 48.82173 5.20478 33233 ft 494 kts 124°
2026-04-26 06:54 48.78367 5.29163 33221 ft 495 kts 125°
2026-04-26 06:55 48.74530 5.37823 33216 ft 494 kts 125°
2026-04-26 06:55 48.70678 5.46450 33212 ft 494 kts 125°
2026-04-26 06:56 48.66818 5.55068 33208 ft 494 kts 125°
2026-04-26 06:56 48.62975 5.63614 33222 ft 494 kts 126°
2026-04-26 06:57 48.59109 5.72201 33226 ft 494 kts 126°
2026-04-26 06:57 48.55235 5.80778 33233 ft 495 kts 126°
2026-04-26 06:58 48.51348 5.89354 33233 ft 494 kts 126°
2026-04-26 06:58 48.47457 5.97903 33239 ft 495 kts 126°
2026-04-26 06:59 48.43560 6.06448 33244 ft 494 kts 126°
2026-04-26 06:59 48.39654 6.14987 33238 ft 495 kts 126°
2026-04-26 07:00 48.35744 6.23502 33239 ft 495 kts 126°
2026-04-26 07:00 48.31824 6.32017 33236 ft 495 kts 126°
2026-04-26 07:01 48.27903 6.40506 33238 ft 494 kts 126°
2026-04-26 07:01 48.23977 6.48981 33241 ft 494 kts 126°
2026-04-26 07:02 48.20041 6.57441 33231 ft 494 kts 127°
2026-04-26 07:02 48.16100 6.65891 33228 ft 494 kts 126°
2026-04-26 07:03 48.12183 6.74262 33233 ft 494 kts 126°
2026-04-26 07:03 48.08235 6.82681 33229 ft 494 kts 126°
2026-04-26 07:04 48.04274 6.91102 33235 ft 494 kts 127°
2026-04-26 07:04 48.00310 6.99497 33236 ft 495 kts 126°
2026-04-26 07:05 47.96337 7.07889 33235 ft 495 kts 126°
2026-04-26 07:05 47.92356 7.16269 33238 ft 495 kts 126°
2026-04-26 07:06 47.88363 7.24649 33244 ft 495 kts 127°
2026-04-26 07:06 47.84389 7.32960 33243 ft 496 kts 127°
2026-04-26 07:07 47.80384 7.41319 33243 ft 496 kts 126°
2026-04-26 07:07 47.76373 7.49667 33237 ft 496 kts 127°
2026-04-26 07:08 47.72339 7.58003 33301 ft 498 kts 127°
2026-04-26 07:08 47.70291 7.62146 33569 ft 498 kts 127°
2026-04-26 07:08 47.68235 7.66270 33898 ft 495 kts 128°
2026-04-26 07:09 47.66183 7.70373 34227 ft 494 kts 128°
2026-04-26 07:09 47.64140 7.74460 34520 ft 492 kts 128°
2026-04-26 07:09 47.62102 7.78541 34788 ft 492 kts 128°
2026-04-26 07:09 47.60072 7.82609 35043 ft 491 kts 128°
2026-04-26 07:10 47.53981 7.94777 35221 ft 493 kts 128°
2026-04-26 07:11 47.49869 8.02956 35228 ft 490 kts 128°
2026-04-26 07:11 47.45808 8.11020 35224 ft 488 kts 128°
2026-04-26 07:12 47.41746 8.19058 35234 ft 488 kts 128°
2026-04-26 07:12 47.37664 8.27107 35233 ft 489 kts 128°
2026-04-26 07:13 47.33576 8.35149 35231 ft 490 kts 128°
2026-04-26 07:13 47.29476 8.43197 35235 ft 492 kts 128°
2026-04-26 07:14 47.25352 8.51271 35227 ft 493 kts 127°
2026-04-26 07:14 47.21314 8.59375 35228 ft 493 kts 127°
2026-04-26 07:15 47.17265 8.67604 35229 ft 493 kts 127°
2026-04-26 07:15 47.13224 8.75786 35227 ft 493 kts 127°
2026-04-26 07:16 47.09209 8.83850 35222 ft 493 kts 127°
2026-04-26 07:16 47.05150 8.91967 35217 ft 493 kts 127°
2026-04-26 07:17 47.01089 9.00075 35221 ft 493 kts 127°
2026-04-26 07:17 46.97030 9.08147 35233 ft 492 kts 127°
2026-04-26 07:18 46.92966 9.16214 35231 ft 492 kts 127°
2026-04-26 07:18 46.88893 9.24273 35224 ft 493 kts 127°
2026-04-26 07:19 46.84814 9.32320 35218 ft 493 kts 127°
2026-04-26 07:19 46.80752 9.40311 35228 ft 493 kts 127°
2026-04-26 07:20 46.76653 9.48353 35236 ft 494 kts 127°
2026-04-26 07:20 46.72541 9.56398 35236 ft 495 kts 127°
2026-04-26 07:21 46.68415 9.64445 35239 ft 495 kts 127°
2026-04-26 07:21 46.64275 9.72487 35249 ft 495 kts 127°
2026-04-26 07:22 46.60140 9.80501 35251 ft 496 kts 127°
2026-04-26 07:22 46.56021 9.88465 35270 ft 495 kts 127°
2026-04-26 07:23 46.51878 9.96459 35274 ft 495 kts 127°
2026-04-26 07:23 46.47683 10.04405 35252 ft 496 kts 130°
2026-04-26 07:24 46.42899 10.11580 35245 ft 495 kts 136°
2026-04-26 07:24 46.37981 10.18568 35247 ft 495 kts 136°
2026-04-26 07:25 46.33899 10.24399 35245 ft 496 kts 135°
2026-04-26 07:25 46.29002 10.31430 35247 ft 496 kts 135°
2026-04-26 07:26 46.24103 10.38467 35227 ft 496 kts 135°
2026-04-26 07:26 46.19195 10.45492 35224 ft 497 kts 136°
2026-04-26 07:27 46.14279 10.52510 35221 ft 497 kts 136°
2026-04-26 07:27 46.09362 10.59513 35197 ft 497 kts 136°
2026-04-26 07:28 46.04440 10.66499 35193 ft 496 kts 136°
2026-04-26 07:28 45.99521 10.73462 35195 ft 496 kts 136°
2026-04-26 07:29 45.94605 10.80423 35177 ft 496 kts 136°
2026-04-26 07:29 45.89708 10.87311 35178 ft 496 kts 136°
2026-04-26 07:30 45.84777 10.94239 35184 ft 496 kts 136°
2026-04-26 07:30 45.79843 11.01157 35177 ft 496 kts 136°
2026-04-26 07:31 45.74898 11.08069 35166 ft 497 kts 136°
2026-04-26 07:31 45.69943 11.14979 35153 ft 497 kts 136°
2026-04-26 07:32 45.64978 11.21875 35136 ft 498 kts 136°
2026-04-26 07:32 45.60037 11.28731 35127 ft 498 kts 136°
2026-04-26 07:33 45.55062 11.35617 35118 ft 498 kts 136°
2026-04-26 07:33 45.50089 11.42480 35121 ft 497 kts 136°
2026-04-26 07:34 45.45125 11.49310 35112 ft 497 kts 136°
2026-04-26 07:34 45.40141 11.56148 35111 ft 497 kts 136°
2026-04-26 07:35 45.35159 11.62970 35108 ft 497 kts 136°
2026-04-26 07:35 45.30161 11.69787 35107 ft 498 kts 136°
2026-04-26 07:36 45.25164 11.76602 35101 ft 498 kts 136°
2026-04-26 07:36 45.20163 11.83402 35100 ft 498 kts 136°
2026-04-26 07:37 45.15152 11.90189 35102 ft 498 kts 136°
2026-04-26 07:37 45.10137 11.96959 35101 ft 498 kts 136°
2026-04-26 07:38 45.05120 12.03731 35096 ft 499 kts 136°
2026-04-26 07:38 45.00130 12.10446 35105 ft 499 kts 136°
2026-04-26 07:39 44.95084 12.17206 35099 ft 500 kts 136°
2026-04-26 07:39 44.90037 12.23959 35084 ft 500 kts 136°
2026-04-26 07:40 44.84986 12.30702 35096 ft 500 kts 137°
2026-04-26 07:40 44.79927 12.37438 35078 ft 500 kts 137°
2026-04-26 07:41 44.74865 12.44160 35080 ft 500 kts 137°
2026-04-26 07:41 44.69802 12.50865 35078 ft 500 kts 137°
2026-04-26 07:42 44.64737 12.57561 35080 ft 500 kts 137°
2026-04-26 07:42 44.59663 12.64245 35080 ft 500 kts 137°
2026-04-26 07:43 44.54580 12.70922 35081 ft 500 kts 137°
2026-04-26 07:43 44.49573 12.77589 35085 ft 500 kts 136°
2026-04-26 07:44 44.44571 12.84334 35098 ft 499 kts 136°
2026-04-26 07:44 44.39558 12.91070 35079 ft 499 kts 136°
2026-04-26 07:45 44.34546 12.97782 35097 ft 499 kts 136°
2026-04-26 07:45 44.29524 13.04470 35101 ft 499 kts 137°
2026-04-26 07:46 44.24501 13.11146 35096 ft 500 kts 137°
2026-04-26 07:46 44.19463 13.17830 35105 ft 499 kts 137°
2026-04-26 07:47 44.14425 13.24495 35101 ft 499 kts 137°
2026-04-26 07:47 44.09412 13.31106 35101 ft 499 kts 137°
2026-04-26 07:48 44.04340 13.37784 35101 ft 499 kts 137°
2026-04-26 07:48 43.99289 13.44415 35102 ft 499 kts 137°
2026-04-26 07:49 43.94269 13.50989 35101 ft 499 kts 137°
2026-04-26 07:49 43.89216 13.57592 35101 ft 499 kts 137°
2026-04-26 07:50 43.81641 13.67467 35100 ft 498 kts 137°
2026-04-26 07:50 43.76582 13.74036 35103 ft 498 kts 137°
2026-04-26 07:51 43.71521 13.80594 35100 ft 498 kts 137°
2026-04-26 07:51 43.66465 13.87127 35104 ft 498 kts 137°
2026-04-26 07:52 43.61395 13.93659 35102 ft 498 kts 137°
2026-04-26 07:52 43.56319 14.00186 35102 ft 498 kts 137°
2026-04-26 07:53 43.51275 14.06663 35101 ft 499 kts 138°
2026-04-26 07:53 43.46184 14.13179 35102 ft 499 kts 138°
2026-04-26 07:54 43.41094 14.19676 35104 ft 499 kts 138°
2026-04-26 07:54 43.35998 14.26171 35102 ft 499 kts 138°
2026-04-26 07:55 43.30901 14.32645 35101 ft 499 kts 138°
2026-04-26 07:55 43.25833 14.39066 35100 ft 498 kts 138°
2026-04-26 07:56 43.20747 14.45505 35103 ft 497 kts 138°
2026-04-26 07:56 43.15655 14.51930 35101 ft 497 kts 138°
2026-04-26 07:57 43.10572 14.58331 35103 ft 497 kts 138°
2026-04-26 07:57 43.05475 14.64731 35101 ft 497 kts 138°
2026-04-26 07:58 43.00375 14.71117 35102 ft 497 kts 138°
2026-04-26 07:58 42.95272 14.77496 35101 ft 497 kts 139°
2026-04-26 07:59 42.90178 14.83850 35103 ft 497 kts 139°
2026-04-26 07:59 42.85086 14.90184 35101 ft 497 kts 139°
2026-04-26 08:00 42.79965 14.96535 35102 ft 497 kts 139°
2026-04-26 08:00 42.74848 15.02879 35102 ft 497 kts 139°
2026-04-26 08:01 42.69728 15.09208 35101 ft 497 kts 139°
2026-04-26 08:01 42.64606 15.15515 35101 ft 497 kts 139°
2026-04-26 08:02 42.59479 15.21815 35101 ft 497 kts 139°
2026-04-26 08:02 42.54355 15.28103 35103 ft 497 kts 139°
2026-04-26 08:03 42.49233 15.34374 35099 ft 496 kts 139°
2026-04-26 08:03 42.44138 15.40596 35104 ft 496 kts 139°
2026-04-26 08:04 42.38974 15.46888 35101 ft 496 kts 139°
2026-04-26 08:04 42.33841 15.53129 35112 ft 496 kts 140°
2026-04-26 08:05 42.28742 15.59312 35101 ft 496 kts 140°
2026-04-26 08:05 42.23604 15.65525 35098 ft 496 kts 140°
2026-04-26 08:06 42.18454 15.71743 35079 ft 496 kts 140°
2026-04-26 08:06 42.13303 15.77947 35102 ft 496 kts 140°
2026-04-26 08:07 42.08144 15.84145 35096 ft 497 kts 140°
2026-04-26 08:07 42.02986 15.90330 35105 ft 497 kts 140°
2026-04-26 08:08 41.97858 15.96475 35098 ft 497 kts 140°
2026-04-26 08:08 41.92689 16.02642 35105 ft 496 kts 140°
2026-04-26 08:09 41.87521 16.08791 35096 ft 496 kts 140°
2026-04-26 08:09 41.82361 16.14927 35103 ft 496 kts 140°
2026-04-26 08:10 41.77191 16.21054 35102 ft 496 kts 140°
2026-04-26 08:10 41.72019 16.27176 35100 ft 496 kts 140°
2026-04-26 08:11 41.66851 16.33272 35104 ft 495 kts 140°
2026-04-26 08:11 41.61678 16.39361 35097 ft 495 kts 140°
2026-04-26 08:12 41.56540 16.45400 35102 ft 495 kts 140°
2026-04-26 08:12 41.51369 16.51461 35104 ft 495 kts 140°
2026-04-26 08:13 41.46190 16.57521 35100 ft 494 kts 140°
2026-04-26 08:13 41.41887 16.62550 35100 ft 495 kts 140°
2026-04-26 08:14 41.36705 16.68586 35103 ft 495 kts 140°
2026-04-26 08:14 41.31521 16.74614 35101 ft 495 kts 140°
2026-04-26 08:15 41.26324 16.80640 35104 ft 495 kts 140°
2026-04-26 08:15 41.21172 16.86601 35101 ft 494 kts 140°
2026-04-26 08:16 41.15983 16.92600 35104 ft 494 kts 140°
2026-04-26 08:16 41.10786 16.98591 35101 ft 494 kts 141°
2026-04-26 08:17 41.05582 17.04570 35103 ft 494 kts 140°
2026-04-26 08:17 41.00388 17.10531 35101 ft 494 kts 140°
2026-04-26 08:18 40.95189 17.16484 35102 ft 494 kts 140°
2026-04-26 08:18 40.89989 17.22427 35103 ft 494 kts 140°
2026-04-26 08:19 40.84826 17.28316 35084 ft 493 kts 140°
2026-04-26 08:19 40.79626 17.34230 35079 ft 493 kts 140°
2026-04-26 08:20 40.74418 17.40135 35089 ft 493 kts 140°
2026-04-26 08:20 40.69217 17.46032 35078 ft 492 kts 140°
2026-04-26 08:21 40.64020 17.51907 35072 ft 492 kts 140°
2026-04-26 08:21 40.58852 17.57735 35081 ft 491 kts 140°
2026-04-26 08:22 40.53664 17.63574 35097 ft 491 kts 140°
2026-04-26 08:22 40.48475 17.69403 35099 ft 491 kts 140°
2026-04-26 08:23 40.43283 17.75224 35087 ft 490 kts 140°
2026-04-26 08:23 40.38094 17.81028 35098 ft 490 kts 140°
2026-04-26 08:24 40.32900 17.86824 35102 ft 490 kts 140°
2026-04-26 08:24 40.27697 17.92621 35103 ft 490 kts 140°
2026-04-26 08:25 40.22500 17.98394 35101 ft 490 kts 140°
2026-04-26 08:25 40.17338 18.04118 35102 ft 489 kts 140°
2026-04-26 08:26 40.12136 18.09877 35101 ft 489 kts 140°
2026-04-26 08:26 40.06937 18.15622 35100 ft 489 kts 140°
2026-04-26 08:27 40.01733 18.21357 35103 ft 489 kts 140°
2026-04-26 08:27 39.96526 18.27084 35103 ft 489 kts 140°
2026-04-26 08:28 39.91346 18.32771 35099 ft 489 kts 140°
2026-04-26 08:28 39.86135 18.38478 35103 ft 490 kts 140°
2026-04-26 08:29 39.80911 18.44187 35099 ft 490 kts 140°
2026-04-26 08:29 39.75683 18.49891 35097 ft 490 kts 140°
2026-04-26 08:30 39.70455 18.55584 35102 ft 491 kts 140°
2026-04-26 08:30 39.65222 18.61274 35081 ft 491 kts 140°
2026-04-26 08:31 39.59980 18.66957 35096 ft 491 kts 140°
2026-04-26 08:31 39.54734 18.72627 35078 ft 490 kts 140°
2026-04-26 08:32 39.49497 18.78289 35080 ft 490 kts 140°
2026-04-26 08:32 39.44250 18.83945 35085 ft 490 kts 140°
2026-04-26 08:33 39.39038 18.89552 35074 ft 491 kts 140°
2026-04-26 08:33 39.33786 18.95192 35072 ft 491 kts 140°
2026-04-26 08:34 39.28532 19.00825 35071 ft 491 kts 139°
2026-04-26 08:34 39.23366 19.06598 35073 ft 491 kts 137°
2026-04-26 08:35 39.18244 19.12430 35073 ft 491 kts 137°
2026-04-26 08:35 39.13118 19.18242 35075 ft 491 kts 137°
2026-04-26 08:36 39.07967 19.24040 35062 ft 491 kts 137°
2026-04-26 08:36 39.02813 19.29820 35065 ft 491 kts 138°
2026-04-26 08:37 38.97700 19.35539 35067 ft 491 kts 137°
2026-04-26 08:37 38.92544 19.41303 35066 ft 491 kts 137°
2026-04-26 08:38 38.87390 19.47042 35063 ft 491 kts 137°
2026-04-26 08:38 38.82231 19.52785 35057 ft 491 kts 137°
2026-04-26 08:39 38.77070 19.58513 35056 ft 490 kts 137°
2026-04-26 08:39 38.71900 19.64239 35055 ft 490 kts 137°
2026-04-26 08:40 38.66768 19.69915 35056 ft 490 kts 137°
2026-04-26 08:40 38.61613 19.75605 35055 ft 490 kts 137°
2026-04-26 08:41 38.56446 19.81297 35055 ft 489 kts 137°
2026-04-26 08:41 38.51294 19.86966 35066 ft 489 kts 137°
2026-04-26 08:42 38.46114 19.92648 35068 ft 489 kts 137°
2026-04-26 08:42 38.40951 19.98301 35058 ft 490 kts 137°
2026-04-26 08:43 38.35805 20.03925 35055 ft 490 kts 136°
2026-04-26 08:43 38.30619 20.09585 35057 ft 491 kts 136°
2026-04-26 08:44 38.25436 20.15226 35054 ft 490 kts 136°
2026-04-26 08:44 38.20252 20.20861 35056 ft 490 kts 137°
2026-04-26 08:45 38.15065 20.26485 35057 ft 490 kts 137°
2026-04-26 08:45 38.09870 20.32104 35055 ft 490 kts 137°
2026-04-26 08:46 38.04678 20.37713 35050 ft 490 kts 137°
2026-04-26 08:46 37.99482 20.43316 35047 ft 490 kts 137°
2026-04-26 08:47 37.94285 20.48907 35058 ft 490 kts 136°
2026-04-26 08:47 37.89085 20.54493 35056 ft 490 kts 136°
2026-04-26 08:48 37.83917 20.60030 35057 ft 490 kts 137°
2026-04-26 08:48 37.78716 20.65604 35059 ft 490 kts 136°
2026-04-26 08:49 37.73501 20.71171 35069 ft 490 kts 136°
2026-04-26 08:49 37.68299 20.76711 35078 ft 491 kts 136°
2026-04-26 08:50 37.63064 20.82279 35072 ft 492 kts 136°
2026-04-26 08:50 37.57819 20.87850 35076 ft 493 kts 136°
2026-04-26 08:51 37.49934 20.96202 35071 ft 494 kts 136°
2026-04-26 08:52 37.44700 21.01731 35067 ft 494 kts 136°
2026-04-26 08:52 37.39395 21.07327 35059 ft 494 kts 136°
2026-04-26 08:53 37.34156 21.12843 35062 ft 494 kts 136°
2026-04-26 08:53 37.28883 21.18384 35061 ft 494 kts 136°
2026-04-26 08:54 37.23604 21.23921 35056 ft 494 kts 136°
2026-04-26 08:54 37.18326 21.29449 35055 ft 494 kts 136°
2026-04-26 08:55 37.13037 21.34970 35046 ft 495 kts 136°
2026-04-26 08:55 37.07740 21.40496 35046 ft 495 kts 136°
2026-04-26 08:56 37.02479 21.45972 35033 ft 495 kts 136°
2026-04-26 08:56 36.97141 21.51517 35029 ft 495 kts 136°
2026-04-26 08:57 36.91875 21.56978 35026 ft 495 kts 136°
2026-04-26 08:57 36.86574 21.62467 35030 ft 495 kts 136°
2026-04-26 08:58 36.81263 21.67953 35027 ft 496 kts 136°
2026-04-26 08:58 36.75944 21.73437 35032 ft 496 kts 137°
2026-04-26 08:59 36.70604 21.78931 35028 ft 498 kts 137°
2026-04-26 08:59 36.65252 21.84432 35028 ft 498 kts 137°
2026-04-26 09:00 36.59936 21.89887 35024 ft 498 kts 137°
2026-04-26 09:00 36.54570 21.95379 35031 ft 499 kts 137°
2026-04-26 09:01 36.49206 22.00858 35040 ft 499 kts 137°
2026-04-26 09:01 36.43838 22.06327 35035 ft 499 kts 137°
2026-04-26 09:02 36.39378 22.10874 35034 ft 499 kts 137°
2026-04-26 09:02 36.33127 22.17225 35037 ft 500 kts 137°
2026-04-26 09:03 36.27741 22.22682 35038 ft 500 kts 137°
2026-04-26 09:03 36.23262 22.27221 35038 ft 500 kts 137°
2026-04-26 09:04 36.17869 22.32676 35037 ft 500 kts 137°
2026-04-26 09:04 36.12478 22.38114 35037 ft 500 kts 137°
2026-04-26 09:05 36.07084 22.43546 35040 ft 499 kts 137°
2026-04-26 09:05 36.01692 22.48964 35044 ft 499 kts 137°
2026-04-26 09:06 35.96339 22.54335 35042 ft 500 kts 138°
2026-04-26 09:06 35.90927 22.59754 35048 ft 501 kts 138°
2026-04-26 09:07 35.85500 22.65184 35048 ft 502 kts 137°
2026-04-26 09:07 35.80065 22.70611 35049 ft 503 kts 138°
2026-04-26 09:08 35.74615 22.76035 35046 ft 504 kts 138°
2026-04-26 09:08 35.69187 22.81431 35040 ft 505 kts 138°
2026-04-26 09:09 35.63720 22.86858 35037 ft 505 kts 138°
2026-04-26 09:09 35.58239 22.92289 35037 ft 505 kts 139°
2026-04-26 09:10 35.52765 22.97706 35042 ft 506 kts 139°
2026-04-26 09:10 35.47275 23.03124 35048 ft 506 kts 139°
2026-04-26 09:11 35.41816 23.08505 35039 ft 507 kts 139°
2026-04-26 09:11 35.36310 23.13919 35036 ft 507 kts 139°
2026-04-26 09:12 35.30804 23.19321 35038 ft 507 kts 139°
2026-04-26 09:12 35.25329 23.24690 35036 ft 507 kts 139°
2026-04-26 09:13 35.19807 23.30091 35026 ft 508 kts 139°
2026-04-26 09:13 35.14279 23.35486 35027 ft 509 kts 139°
2026-04-26 09:14 35.08746 23.40884 35030 ft 509 kts 140°
2026-04-26 09:14 35.03213 23.46267 35030 ft 509 kts 140°
2026-04-26 09:15 34.97672 23.51649 35026 ft 509 kts 140°
2026-04-26 09:15 34.92115 23.57040 35031 ft 510 kts 140°
2026-04-26 09:16 34.86585 23.62386 35030 ft 511 kts 140°
2026-04-26 09:16 34.81013 23.67774 35024 ft 512 kts 140°
2026-04-26 09:17 34.75422 23.73168 35026 ft 513 kts 141°
2026-04-26 09:17 34.69821 23.78561 35029 ft 513 kts 141°
2026-04-26 09:18 34.64220 23.83940 35027 ft 513 kts 141°
2026-04-26 09:18 34.58612 23.89323 35028 ft 514 kts 141°
2026-04-26 09:19 34.53028 23.94672 35031 ft 515 kts 141°
2026-04-26 09:19 34.47386 24.00065 35027 ft 516 kts 142°
2026-04-26 09:20 34.41739 24.05452 35031 ft 517 kts 142°
2026-04-26 09:20 34.36083 24.10842 35030 ft 517 kts 142°
2026-04-26 09:21 34.30422 24.16228 35028 ft 518 kts 142°
2026-04-26 09:21 34.24748 24.21613 35023 ft 518 kts 142°
2026-04-26 09:22 34.19075 24.26988 35020 ft 518 kts 142°
2026-04-26 09:22 34.13406 24.32355 35018 ft 517 kts 142°
2026-04-26 09:23 34.07739 24.37702 35018 ft 517 kts 142°
2026-04-26 09:23 34.02111 24.43009 35020 ft 517 kts 142°
2026-04-26 09:24 33.96598 24.48562 35009 ft 517 kts 139°
2026-04-26 09:24 33.91242 24.54358 35021 ft 518 kts 139°
2026-04-26 09:25 33.85885 24.60165 35022 ft 519 kts 139°
2026-04-26 09:25 33.80496 24.65964 35017 ft 520 kts 139°
2026-04-26 09:26 33.75082 24.71764 35021 ft 522 kts 139°
2026-04-26 09:26 33.69656 24.77564 35016 ft 522 kts 140°
2026-04-26 09:27 33.64254 24.83321 35020 ft 523 kts 140°
2026-04-26 09:27 33.58815 24.89112 35016 ft 523 kts 140°
2026-04-26 09:28 33.53374 24.94903 35017 ft 523 kts 140°
2026-04-26 09:28 33.47936 25.00677 35019 ft 522 kts 140°
2026-04-26 09:29 33.42489 25.06445 35015 ft 522 kts 140°
2026-04-26 09:29 33.37049 25.12203 35020 ft 522 kts 140°
2026-04-26 09:30 33.31599 25.17956 35017 ft 522 kts 141°
2026-04-26 09:30 33.26144 25.23701 35012 ft 523 kts 141°
2026-04-26 09:31 33.20680 25.29454 35004 ft 523 kts 141°
2026-04-26 09:31 33.15212 25.35202 35001 ft 524 kts 141°
2026-04-26 09:32 33.09741 25.40940 35002 ft 524 kts 141°
2026-04-26 09:32 33.04300 25.46636 35002 ft 524 kts 141°
2026-04-26 09:33 32.98823 25.52360 34985 ft 524 kts 141°
2026-04-26 09:33 32.93338 25.58078 34984 ft 524 kts 142°
2026-04-26 09:34 32.87844 25.63800 34982 ft 525 kts 142°
2026-04-26 09:34 32.82337 25.69532 34997 ft 526 kts 142°
2026-04-26 09:35 32.76819 25.75260 34986 ft 527 kts 142°
2026-04-26 09:35 32.71292 25.80982 34983 ft 527 kts 143°
2026-04-26 09:36 32.65758 25.86707 34980 ft 528 kts 143°
2026-04-26 09:36 32.60213 25.92431 35001 ft 529 kts 143°
2026-04-26 09:37 32.54665 25.98150 35012 ft 529 kts 143°
2026-04-26 09:37 32.49108 26.03867 35007 ft 529 kts 143°
2026-04-26 09:38 32.43554 26.09576 35012 ft 528 kts 144°
2026-04-26 09:38 32.38028 26.15239 35010 ft 528 kts 144°
2026-04-26 09:39 32.32474 26.20930 35004 ft 528 kts 144°
2026-04-26 09:39 32.26922 26.26608 35013 ft 528 kts 144°
2026-04-26 09:40 32.21359 26.32282 35018 ft 528 kts 144°
2026-04-26 09:40 32.15801 26.37943 35017 ft 528 kts 144°
2026-04-26 09:41 32.10227 26.43611 35022 ft 528 kts 144°
2026-04-26 09:41 32.04651 26.49281 35019 ft 529 kts 144°
2026-04-26 09:42 31.99075 26.54929 35015 ft 528 kts 144°
2026-04-26 09:42 31.93505 26.60564 35015 ft 528 kts 145°
2026-04-26 09:43 31.87967 26.66156 35022 ft 528 kts 145°
2026-04-26 09:43 31.82381 26.71791 35020 ft 529 kts 145°
2026-04-26 09:44 31.76789 26.77422 35020 ft 530 kts 145°
2026-04-26 09:44 31.71180 26.83062 35022 ft 530 kts 145°
2026-04-26 09:45 31.65570 26.88689 35018 ft 531 kts 145°
2026-04-26 09:45 31.59950 26.94324 35019 ft 530 kts 146°
2026-04-26 09:46 31.54344 26.99936 35018 ft 530 kts 146°
2026-04-26 09:46 31.48770 27.05500 35017 ft 530 kts 146°
2026-04-26 09:47 31.43153 27.11104 35015 ft 529 kts 146°
2026-04-26 09:47 31.37541 27.16691 35019 ft 529 kts 146°
2026-04-26 09:48 31.32137 27.22587 35009 ft 536 kts 138°
2026-04-26 09:48 31.27591 27.29558 35021 ft 542 kts 128°
2026-04-26 09:49 31.23438 27.36937 35024 ft 543 kts 128°
2026-04-26 09:49 31.19238 27.44263 35019 ft 542 kts 129°
2026-04-26 09:50 31.15021 27.51511 35023 ft 542 kts 129°
2026-04-26 09:50 31.10760 27.58783 35017 ft 542 kts 130°
2026-04-26 09:51 31.06445 27.65997 35017 ft 542 kts 130°
2026-04-26 09:51 31.02121 27.73196 35007 ft 543 kts 130°
2026-04-26 09:52 30.97790 27.80422 35010 ft 544 kts 130°
2026-04-26 09:52 30.91277 27.91280 35008 ft 545 kts 131°
2026-04-26 09:53 30.87658 27.97297 35006 ft 545 kts 131°
2026-04-26 09:53 30.82591 28.05706 35002 ft 546 kts 131°
2026-04-26 09:54 30.78928 28.11773 34986 ft 546 kts 131°
2026-04-26 09:54 30.74587 28.18955 35003 ft 546 kts 131°
2026-04-26 09:55 30.70215 28.26175 35004 ft 546 kts 131°
2026-04-26 09:55 30.65837 28.33391 35003 ft 546 kts 131°
2026-04-26 09:56 30.61452 28.40605 35003 ft 546 kts 132°
2026-04-26 09:56 30.57058 28.47817 34990 ft 547 kts 132°
2026-04-26 09:57 30.52653 28.55035 34981 ft 547 kts 132°
2026-04-26 09:57 30.48253 28.62237 35002 ft 547 kts 132°
2026-04-26 09:58 30.43840 28.69445 35004 ft 548 kts 132°
2026-04-26 09:58 30.39451 28.76597 34998 ft 548 kts 132°
2026-04-26 09:59 30.35027 28.83799 35002 ft 548 kts 132°
2026-04-26 09:59 30.30609 28.90982 35005 ft 547 kts 132°
2026-04-26 10:00 30.26186 28.98152 34992 ft 547 kts 133°
2026-04-26 10:00 30.21766 29.05314 34993 ft 547 kts 133°
2026-04-26 10:01 30.17339 29.12463 35008 ft 547 kts 133°
2026-04-26 10:01 30.12907 29.19601 35001 ft 547 kts 133°
2026-04-26 10:02 30.08519 29.26788 35002 ft 548 kts 132°
2026-04-26 10:02 30.04174 29.34026 35004 ft 548 kts 132°
2026-04-26 10:03 29.99842 29.41231 35004 ft 549 kts 132°
2026-04-26 10:03 29.95438 29.48516 35007 ft 551 kts 133°
2026-04-26 10:04 29.91070 29.55707 35011 ft 552 kts 133°
2026-04-26 10:04 29.86663 29.62958 35017 ft 552 kts 133°
2026-04-26 10:05 29.82248 29.70208 35021 ft 553 kts 133°
2026-04-26 10:05 29.77816 29.77475 35026 ft 553 kts 133°
2026-04-26 10:06 29.73398 29.84714 35023 ft 552 kts 133°
2026-04-26 10:06 29.68979 29.91938 35025 ft 552 kts 133°
2026-04-26 10:07 29.64554 29.99146 35026 ft 552 kts 133°
2026-04-26 10:07 29.60130 30.06346 35025 ft 551 kts 133°
2026-04-26 10:08 29.55731 30.13497 35028 ft 551 kts 133°
2026-04-26 10:08 29.51310 30.20676 35028 ft 550 kts 133°
2026-04-26 10:09 29.46884 30.27847 35030 ft 551 kts 133°
2026-04-26 10:09 29.42446 30.35029 35025 ft 552 kts 133°
2026-04-26 10:10 29.37768 30.41918 35028 ft 541 kts 142°
2026-04-26 10:10 29.32540 30.48093 35036 ft 539 kts 144°
2026-04-26 10:11 29.27292 30.54220 35029 ft 539 kts 143°
2026-04-26 10:11 29.22053 30.60407 35031 ft 542 kts 143°
2026-04-26 10:12 29.16816 30.66629 35035 ft 543 kts 143°
2026-04-26 10:12 29.11594 30.72829 35036 ft 545 kts 143°
2026-04-26 10:13 29.06329 30.79067 35038 ft 545 kts 143°
2026-04-26 10:13 29.01047 30.85307 35031 ft 545 kts 143°
2026-04-26 10:14 28.95772 30.91532 35042 ft 545 kts 143°
2026-04-26 10:14 28.90496 30.97743 35027 ft 544 kts 143°
2026-04-26 10:15 28.85230 31.03939 35028 ft 544 kts 143°
2026-04-26 10:15 28.79954 31.10131 35034 ft 544 kts 143°
2026-04-26 10:16 28.74709 31.16283 35027 ft 544 kts 143°
2026-04-26 10:16 28.69433 31.22464 35026 ft 544 kts 143°
2026-04-26 10:17 28.64291 31.28815 35038 ft 547 kts 141°
2026-04-26 10:17 28.59231 31.35300 35042 ft 548 kts 141°
2026-04-26 10:18 28.54139 31.41780 35038 ft 548 kts 141°
2026-04-26 10:18 28.49019 31.48219 35040 ft 549 kts 141°
2026-04-26 10:19 28.43884 31.54651 35035 ft 549 kts 141°
2026-04-26 10:19 28.38779 31.61039 35038 ft 550 kts 141°
2026-04-26 10:20 28.34472 31.66423 35022 ft 550 kts 141°
2026-04-26 10:20 28.28473 31.73907 35019 ft 551 kts 141°
2026-04-26 10:21 28.23315 31.80344 35019 ft 551 kts 142°
2026-04-26 10:21 28.18146 31.86773 35012 ft 551 kts 142°
2026-04-26 10:22 28.12978 31.93198 35013 ft 552 kts 142°
2026-04-26 10:22 28.07801 31.99623 35001 ft 552 kts 142°
2026-04-26 10:23 28.02876 32.06367 35003 ft 562 kts 133°
2026-04-26 10:23 27.98892 32.14019 35003 ft 570 kts 125°
2026-04-26 10:24 27.95175 32.21950 34985 ft 570 kts 125°
2026-04-26 10:24 27.91427 32.29844 34978 ft 569 kts 126°
2026-04-26 10:25 27.87645 32.37684 34971 ft 569 kts 126°
2026-04-26 10:25 27.83834 32.45522 34974 ft 568 kts 126°
2026-04-26 10:26 27.80029 32.53350 34962 ft 568 kts 126°
2026-04-26 10:26 27.76220 32.61182 34922 ft 568 kts 126°
2026-04-26 10:27 27.72417 32.68994 34945 ft 568 kts 126°
2026-04-26 10:27 27.68631 32.76755 34931 ft 568 kts 126°
2026-04-26 10:28 27.64817 32.84554 34924 ft 567 kts 126°
2026-04-26 10:28 27.60996 32.92341 34922 ft 567 kts 126°
2026-04-26 10:29 27.57181 33.00122 34935 ft 567 kts 126°
2026-04-26 10:29 27.53360 33.07899 34918 ft 566 kts 126°
2026-04-26 10:30 27.49536 33.15662 34922 ft 566 kts 127°
2026-04-26 10:30 27.45713 33.23406 34914 ft 566 kts 127°
2026-04-26 10:31 27.41886 33.31151 34916 ft 566 kts 127°
2026-04-26 10:31 27.38058 33.38884 34918 ft 566 kts 127°
2026-04-26 10:32 27.34244 33.46570 34913 ft 566 kts 126°
2026-04-26 10:32 27.30404 33.54303 34921 ft 567 kts 126°
2026-04-26 10:33 27.26553 33.62048 34918 ft 567 kts 126°
2026-04-26 10:33 27.22700 33.69783 34918 ft 567 kts 127°
2026-04-26 10:34 27.18847 33.77508 34913 ft 567 kts 126°
2026-04-26 10:34 27.15520 33.85604 34918 ft 575 kts 117°
2026-04-26 10:35 27.12630 33.93977 34919 ft 575 kts 117°
2026-04-26 10:35 27.09711 34.02332 34916 ft 574 kts 118°
2026-04-26 10:36 27.06735 34.10645 34918 ft 574 kts 118°
2026-04-26 10:36 27.03771 34.18892 34915 ft 573 kts 118°
2026-04-26 10:37 27.00800 34.27183 34915 ft 572 kts 118°
2026-04-26 10:37 26.97828 34.35465 34920 ft 572 kts 118°
2026-04-26 10:38 26.94864 34.43727 34925 ft 571 kts 118°
2026-04-26 10:38 26.91896 34.51982 34928 ft 571 kts 118°
2026-04-26 10:39 26.88914 34.60251 34926 ft 572 kts 118°
2026-04-26 10:39 26.85929 34.68510 34926 ft 572 kts 118°
2026-04-26 10:40 26.82936 34.76775 34927 ft 573 kts 118°
2026-04-26 10:40 26.80442 34.83653 34927 ft 574 kts 118°
2026-04-26 10:41 26.77436 34.91929 34926 ft 574 kts 118°
2026-04-26 10:41 26.73923 35.01537 34926 ft 574 kts 118°
2026-04-26 10:42 26.71386 35.08459 34925 ft 574 kts 118°
2026-04-26 10:42 26.68354 35.16712 34931 ft 573 kts 118°
2026-04-26 10:43 26.65341 35.24897 34941 ft 573 kts 118°
2026-04-26 10:43 26.62305 35.33134 34933 ft 572 kts 118°
2026-04-26 10:44 26.59268 35.41358 34942 ft 572 kts 118°
2026-04-26 10:44 26.56225 35.49578 34934 ft 572 kts 119°
2026-04-26 10:45 26.53122 35.57749 34935 ft 571 kts 119°
2026-04-26 10:45 26.49981 35.65897 34925 ft 571 kts 119°
2026-04-26 10:46 26.46847 35.74045 34926 ft 571 kts 119°
2026-04-26 10:46 26.43738 35.82136 34928 ft 571 kts 119°
2026-04-26 10:47 26.40605 35.90280 34930 ft 571 kts 119°
2026-04-26 10:47 26.37470 35.98412 34921 ft 571 kts 119°
2026-04-26 10:48 26.34329 36.06537 34915 ft 571 kts 119°
2026-04-26 10:48 26.31180 36.14670 34917 ft 570 kts 119°
2026-04-26 10:49 26.28033 36.22779 34918 ft 571 kts 119°
2026-04-26 10:49 26.24895 36.30852 34916 ft 570 kts 120°
2026-04-26 10:50 26.22271 36.37595 34918 ft 570 kts 120°
2026-04-26 10:50 26.18576 36.47062 34918 ft 570 kts 120°
2026-04-26 10:51 26.13115 36.58724 34926 ft 564 kts 126°
2026-04-26 10:52 26.09311 36.66298 34915 ft 565 kts 126°
2026-04-26 10:52 26.05503 36.73964 34907 ft 566 kts 126°
2026-04-26 10:53 26.01712 36.81652 34907 ft 567 kts 126°
2026-04-26 10:53 25.97920 36.89332 34911 ft 567 kts 125°
2026-04-26 10:54 25.92220 37.00839 34899 ft 566 kts 125°
2026-04-26 10:54 25.88412 37.08503 34898 ft 566 kts 125°
2026-04-26 10:55 25.84607 37.16154 34891 ft 565 kts 125°
2026-04-26 10:55 25.80830 37.23736 34886 ft 564 kts 125°
2026-04-26 10:56 25.77038 37.31343 34890 ft 564 kts 125°
2026-04-26 10:56 25.73243 37.38961 34887 ft 563 kts 125°
2026-04-26 10:57 25.69450 37.46566 34886 ft 564 kts 126°
2026-04-26 10:57 25.65651 37.54176 34908 ft 563 kts 126°
2026-04-26 10:58 25.61844 37.61772 34901 ft 564 kts 126°
2026-04-26 10:58 25.58047 37.69334 34917 ft 566 kts 126°
2026-04-26 10:59 25.54218 37.76962 34914 ft 566 kts 126°
2026-04-26 10:59 25.50379 37.84596 34916 ft 566 kts 126°
2026-04-26 11:00 25.46536 37.92217 34926 ft 566 kts 126°
2026-04-26 11:00 25.42693 37.99823 34913 ft 566 kts 125°
2026-04-26 11:01 25.38874 38.07383 34908 ft 566 kts 125°
2026-04-26 11:01 25.35036 38.14968 34922 ft 565 kts 126°
2026-04-26 11:02 25.31193 38.22541 34907 ft 564 kts 125°
2026-04-26 11:02 25.27358 38.30086 34940 ft 562 kts 125°
2026-04-26 11:03 25.23515 38.37639 34952 ft 563 kts 125°
2026-04-26 11:03 25.19693 38.45130 34935 ft 564 kts 125°
2026-04-26 11:04 25.15844 38.52672 34954 ft 564 kts 125°
2026-04-26 11:04 25.13914 38.56448 35075 ft 566 kts 125°
2026-04-26 11:04 25.11986 38.60222 35461 ft 564 kts 125°
2026-04-26 11:05 25.10062 38.63982 35892 ft 560 kts 125°
2026-04-26 11:05 25.08162 38.67698 36484 ft 552 kts 125°
2026-04-26 11:05 25.06280 38.71377 36933 ft 549 kts 125°
2026-04-26 11:05 25.04409 38.75027 36935 ft 546 kts 125°
2026-04-26 11:06 25.00692 38.82267 36956 ft 541 kts 125°
2026-04-26 11:06 24.96971 38.89492 36964 ft 543 kts 125°
2026-04-26 11:07 24.93226 38.96745 36969 ft 545 kts 125°
2026-04-26 11:07 24.89461 39.03990 36985 ft 545 kts 125°
2026-04-26 11:08 24.85688 39.11243 36984 ft 545 kts 125°
2026-04-26 11:08 24.81925 39.18473 36990 ft 544 kts 125°
2026-04-26 11:09 24.78164 39.25691 36992 ft 544 kts 125°
2026-04-26 11:09 24.74403 39.32899 37001 ft 543 kts 125°
2026-04-26 11:10 24.70667 39.40054 37012 ft 543 kts 125°
2026-04-26 11:10 24.66901 39.47249 37007 ft 542 kts 125°
2026-04-26 11:11 24.63139 39.54427 37020 ft 541 kts 125°
2026-04-26 11:11 24.59379 39.61599 37026 ft 541 kts 125°
2026-04-26 11:12 24.55969 39.68982 37020 ft 546 kts 114°
2026-04-26 11:12 24.53948 39.77060 37018 ft 551 kts 101°
2026-04-26 11:13 24.53144 39.85384 37023 ft 552 kts 96°
2026-04-26 11:13 24.52437 39.93794 37020 ft 552 kts 97°
2026-04-26 11:14 24.51668 40.02185 37018 ft 551 kts 97°
2026-04-26 11:14 24.50991 40.09144 37015 ft 551 kts 98°
2026-04-26 11:15 24.50023 40.18915 37018 ft 550 kts 97°
2026-04-26 11:15 24.49201 40.27277 37018 ft 550 kts 97°
2026-04-26 11:16 24.48376 40.35626 37014 ft 550 kts 98°
2026-04-26 11:16 24.47549 40.43974 37004 ft 550 kts 98°
2026-04-26 11:17 24.46714 40.52315 36988 ft 550 kts 98°
2026-04-26 11:17 24.45879 40.60604 36990 ft 550 kts 98°
2026-04-26 11:18 24.45040 40.68966 36981 ft 551 kts 98°
2026-04-26 11:18 24.44200 40.77328 36986 ft 550 kts 98°
2026-04-26 11:19 24.43356 40.85674 36981 ft 550 kts 98°
2026-04-26 11:19 24.42508 40.94025 36983 ft 550 kts 98°
2026-04-26 11:20 24.41800 41.00959 36982 ft 550 kts 98°
2026-04-26 11:20 24.40799 41.10660 36997 ft 550 kts 98°
2026-04-26 11:21 24.39921 41.18991 37014 ft 549 kts 98°
2026-04-26 11:21 24.39040 41.27312 37022 ft 549 kts 98°
2026-04-26 11:22 24.38156 41.35623 37023 ft 549 kts 98°
2026-04-26 11:22 24.37269 41.43936 37031 ft 548 kts 98°
2026-04-26 11:23 24.36378 41.52238 37025 ft 547 kts 98°
2026-04-26 11:23 24.35482 41.60516 37026 ft 546 kts 98°
2026-04-26 11:24 24.34588 41.68768 37026 ft 545 kts 98°
2026-04-26 11:24 24.33695 41.76970 37016 ft 544 kts 98°
2026-04-26 11:25 24.32496 41.85126 37010 ft 540 kts 107°
2026-04-26 11:25 24.30406 41.93023 37021 ft 538 kts 109°
2026-04-26 11:26 24.28251 42.00904 37018 ft 539 kts 109°
2026-04-26 11:26 24.26137 42.08802 37021 ft 539 kts 109°
2026-04-26 11:27 24.24063 42.16648 37017 ft 540 kts 109°
2026-04-26 11:27 24.21974 42.24554 37019 ft 540 kts 109°
2026-04-26 11:28 24.19876 42.32466 37020 ft 541 kts 109°
2026-04-26 11:28 24.17765 42.40383 37014 ft 542 kts 109°
2026-04-26 11:29 24.15651 42.48303 37006 ft 542 kts 109°
2026-04-26 11:29 24.13534 42.56227 37016 ft 542 kts 109°
2026-04-26 11:30 24.11768 42.62809 37007 ft 542 kts 109°
2026-04-26 11:30 24.09643 42.70730 37006 ft 542 kts 109°
2026-04-26 11:31 24.07508 42.78650 36998 ft 543 kts 109°
2026-04-26 11:31 24.05024 42.87871 37002 ft 543 kts 109°
2026-04-26 11:32 24.03240 42.94474 36999 ft 543 kts 109°
2026-04-26 11:32 24.01094 43.02397 36999 ft 543 kts 109°
2026-04-26 11:33 23.98950 43.10317 37004 ft 543 kts 109°
2026-04-26 11:33 23.96808 43.18220 37002 ft 541 kts 109°
2026-04-26 11:34 23.94664 43.26093 36992 ft 539 kts 109°
2026-04-26 11:34 23.92521 43.33936 37001 ft 538 kts 109°
2026-04-26 11:35 23.90378 43.41774 37001 ft 538 kts 109°
2026-04-26 11:35 23.88236 43.49597 37002 ft 537 kts 109°
2026-04-26 11:36 23.86088 43.57422 36997 ft 538 kts 109°
2026-04-26 11:36 23.84032 43.64894 36995 ft 537 kts 109°
2026-04-26 11:37 23.81889 43.72671 36999 ft 538 kts 109°
2026-04-26 11:37 23.79726 43.80496 37002 ft 539 kts 109°
2026-04-26 11:38 23.77682 43.88392 36994 ft 541 kts 104°
2026-04-26 11:38 23.76703 43.96558 36998 ft 543 kts 95°
2026-04-26 11:39 23.76173 44.04803 36992 ft 544 kts 95°
2026-04-26 11:39 23.75608 44.13040 36991 ft 544 kts 95°
2026-04-26 11:40 23.74995 44.21229 36992 ft 544 kts 96°
2026-04-26 11:40 23.74362 44.29470 36989 ft 544 kts 95°
2026-04-26 11:42 23.71822 44.62330 36994 ft 541 kts 95°
2026-04-26 11:43 23.71180 44.70512 36986 ft 541 kts 95°
2026-04-26 11:43 23.70534 44.78686 36991 ft 540 kts 95°
2026-04-26 11:44 23.69890 44.86788 36989 ft 539 kts 95°
2026-04-26 11:44 23.69234 44.94938 36992 ft 538 kts 95°
2026-04-26 11:45 23.68574 45.03077 36990 ft 538 kts 95°
2026-04-26 11:45 23.67910 45.11210 36996 ft 538 kts 95°
2026-04-26 11:46 23.67244 45.19354 36988 ft 538 kts 95°
2026-04-26 11:46 23.66574 45.27487 36986 ft 538 kts 95°
2026-04-26 11:47 23.65906 45.35569 36994 ft 538 kts 95°
2026-04-26 11:47 23.65229 45.43704 36991 ft 538 kts 95°
2026-04-26 11:48 23.64549 45.51839 36988 ft 538 kts 95°
2026-04-26 11:48 23.63864 45.59975 36992 ft 539 kts 95°
2026-04-26 11:49 23.63172 45.68117 36993 ft 539 kts 96°
2026-04-26 11:49 23.62478 45.76250 36993 ft 539 kts 96°
2026-04-26 11:50 23.61787 45.84392 37002 ft 539 kts 96°
2026-04-26 11:50 23.61091 45.92485 37001 ft 540 kts 96°
2026-04-26 11:51 23.60379 46.00697 37003 ft 540 kts 96°
2026-04-26 11:51 23.59671 46.08803 37003 ft 540 kts 96°
2026-04-26 11:52 23.59071 46.15644 37001 ft 541 kts 96°
2026-04-26 11:52 23.58236 46.25126 37001 ft 540 kts 96°
2026-04-26 11:53 23.57516 46.33263 36999 ft 540 kts 96°
2026-04-26 11:54 23.56423 46.45471 37003 ft 538 kts 96°
2026-04-26 11:54 23.55693 46.53590 37011 ft 538 kts 96°
2026-04-26 11:55 23.54949 46.61696 37008 ft 537 kts 96°
2026-04-26 11:55 23.54200 46.69794 37006 ft 536 kts 96°
2026-04-26 11:56 23.53453 46.77823 37014 ft 536 kts 96°
2026-04-26 11:56 23.52699 46.85898 37021 ft 535 kts 96°
2026-04-26 11:57 23.51942 46.93969 37017 ft 535 kts 96°
2026-04-26 11:57 23.51179 47.02043 37021 ft 536 kts 96°
2026-04-26 11:58 23.50414 47.10119 37018 ft 535 kts 96°
2026-04-26 11:58 23.49642 47.18195 37018 ft 536 kts 96°
2026-04-26 11:59 23.48865 47.26286 37019 ft 536 kts 96°
2026-04-26 11:59 23.48091 47.34325 37019 ft 537 kts 96°
2026-04-26 12:00 23.47306 47.42412 37018 ft 537 kts 96°
2026-04-26 12:00 23.46517 47.50504 37019 ft 537 kts 96°
2026-04-26 12:01 23.45728 47.58589 37015 ft 537 kts 96°
2026-04-26 12:01 23.44940 47.66675 37017 ft 537 kts 96°
2026-04-26 12:02 23.44148 47.74773 37013 ft 537 kts 96°
2026-04-26 12:02 23.43349 47.82862 37009 ft 537 kts 96°
2026-04-26 12:03 23.42548 47.90956 37011 ft 538 kts 96°
2026-04-26 12:03 23.41741 47.99059 37007 ft 538 kts 96°
2026-04-26 12:04 23.40936 48.07098 37009 ft 538 kts 96°
2026-04-26 12:04 23.40120 48.15178 37009 ft 537 kts 96°
2026-04-26 12:05 23.39301 48.23274 37010 ft 537 kts 96°
2026-04-26 12:05 23.38481 48.31355 37006 ft 537 kts 96°
2026-04-26 12:06 23.37913 48.39442 37011 ft 535 kts 91°
2026-04-26 12:06 23.37623 48.47549 37002 ft 535 kts 91°
2026-04-26 12:07 23.37343 48.55643 37001 ft 535 kts 91°
2026-04-26 12:07 23.37018 48.63671 37000 ft 534 kts 91°
2026-04-26 12:08 23.36682 48.71744 36989 ft 533 kts 91°
2026-04-26 12:08 23.36344 48.79793 36991 ft 532 kts 91°
2026-04-26 12:09 23.36004 48.87838 36989 ft 531 kts 91°
2026-04-26 12:09 23.35659 48.95882 36995 ft 531 kts 91°
2026-04-26 12:10 23.35315 49.03868 36984 ft 531 kts 91°
2026-04-26 12:10 23.34544 49.11853 36988 ft 531 kts 98°
2026-04-26 12:11 23.33363 49.19803 36984 ft 532 kts 99°
2026-04-26 12:11 23.32163 49.27745 36982 ft 532 kts 98°
2026-04-26 12:12 23.30992 49.35697 36980 ft 532 kts 98°
2026-04-26 12:12 23.29838 49.43662 36972 ft 533 kts 98°
2026-04-26 12:13 23.28685 49.51627 36965 ft 533 kts 98°
2026-04-26 12:13 23.27519 49.59617 36912 ft 534 kts 98°
2026-04-26 12:14 23.26358 49.67547 36919 ft 534 kts 98°
2026-04-26 12:14 23.25183 49.75531 36922 ft 534 kts 98°
2026-04-26 12:15 23.24003 49.83507 36910 ft 534 kts 98°
2026-04-26 12:15 23.22826 49.91479 36915 ft 534 kts 98°
2026-04-26 12:16 23.21640 49.99441 36916 ft 533 kts 98°
2026-04-26 12:16 23.20451 50.07416 36917 ft 533 kts 98°
2026-04-26 12:17 23.19268 50.15321 36906 ft 533 kts 98°
2026-04-26 12:17 23.18074 50.23265 36911 ft 533 kts 98°
2026-04-26 12:18 23.16873 50.31220 36923 ft 532 kts 98°
2026-04-26 12:18 23.15669 50.39165 36910 ft 532 kts 98°
2026-04-26 12:19 23.14465 50.47098 36924 ft 532 kts 98°
2026-04-26 12:19 23.13462 50.53684 36921 ft 532 kts 98°
2026-04-26 12:20 23.12250 50.61609 36922 ft 531 kts 98°
2026-04-26 12:20 23.11038 50.69531 36913 ft 531 kts 98°
2026-04-26 12:21 23.09823 50.77439 36907 ft 530 kts 98°
2026-04-26 12:21 23.08602 50.85342 36923 ft 530 kts 98°
2026-04-26 12:22 23.07385 50.93190 36913 ft 530 kts 98°
2026-04-26 12:22 23.06157 51.01088 36921 ft 531 kts 98°
2026-04-26 12:23 23.04925 51.08992 36911 ft 531 kts 98°
2026-04-26 12:23 23.03686 51.16899 36918 ft 531 kts 98°
2026-04-26 12:24 23.02445 51.24800 36912 ft 530 kts 98°
2026-04-26 12:24 23.01202 51.32687 36903 ft 529 kts 98°
2026-04-26 12:25 22.99333 51.44506 36889 ft 530 kts 98°
2026-04-26 12:25 22.98090 51.52335 36888 ft 530 kts 98°
2026-04-26 12:26 22.96833 51.60222 36893 ft 530 kts 98°
2026-04-26 12:26 22.95572 51.68110 36892 ft 530 kts 98°
2026-04-26 12:27 22.94306 51.75990 36890 ft 530 kts 98°
2026-04-26 12:27 22.93039 51.83862 36887 ft 530 kts 98°
2026-04-26 12:28 22.91769 51.91728 36883 ft 529 kts 98°
2026-04-26 12:28 22.90495 51.99595 36882 ft 529 kts 98°
2026-04-26 12:29 22.89220 52.07446 36880 ft 528 kts 98°
2026-04-26 12:30 22.87301 52.19204 36878 ft 527 kts 98°
2026-04-26 12:30 22.86029 52.26979 36883 ft 527 kts 98°
2026-04-26 12:31 22.84098 52.38720 36878 ft 527 kts 98°
2026-04-26 12:31 22.82809 52.46537 36881 ft 526 kts 97°
2026-04-26 12:32 22.82148 52.54400 36885 ft 522 kts 89°
2026-04-26 12:33 22.81938 52.66208 36883 ft 523 kts 88°
2026-04-26 12:33 22.81768 52.74089 36875 ft 523 kts 88°
2026-04-26 12:34 22.81564 52.81977 36869 ft 524 kts 89°
2026-04-26 12:34 22.81347 52.89866 36870 ft 524 kts 89°
2026-04-26 12:35 22.81124 52.97766 36867 ft 524 kts 89°
2026-04-26 12:35 22.80908 53.05605 36870 ft 524 kts 89°
2026-04-26 12:36 22.80685 53.13494 36872 ft 523 kts 89°
2026-04-26 12:36 22.80460 53.21382 36868 ft 523 kts 89°
2026-04-26 12:37 22.80226 53.29257 36875 ft 523 kts 89°
2026-04-26 12:37 22.79991 53.37127 36864 ft 523 kts 89°
2026-04-26 12:38 22.79756 53.44998 36863 ft 522 kts 89°
2026-04-26 12:38 22.79515 53.52864 36862 ft 522 kts 89°
2026-04-26 12:39 22.79266 53.60739 36860 ft 522 kts 89°
2026-04-26 12:39 22.79015 53.68601 36855 ft 521 kts 89°
2026-04-26 12:40 22.78765 53.76442 36865 ft 521 kts 89°
2026-04-26 12:40 22.78514 53.84101 36862 ft 521 kts 89°
2026-04-26 12:41 22.78255 53.91954 36865 ft 521 kts 89°
2026-04-26 12:41 22.78295 53.99775 36867 ft 516 kts 81°
2026-04-26 12:42 22.79494 54.07389 36865 ft 510 kts 72°
2026-04-26 12:42 22.81081 54.14876 36863 ft 509 kts 72°
2026-04-26 12:43 22.82643 54.22362 36858 ft 509 kts 73°
2026-04-26 12:43 22.84158 54.29827 36865 ft 509 kts 73°
2026-04-26 12:44 22.85668 54.37337 36862 ft 510 kts 73°
2026-04-26 12:44 22.87177 54.44863 36864 ft 511 kts 73°
2026-04-26 12:45 22.88692 54.52396 36862 ft 511 kts 73°
2026-04-26 12:45 22.90203 54.59937 36860 ft 512 kts 73°
2026-04-26 12:46 22.91699 54.67439 36863 ft 512 kts 73°
2026-04-26 12:46 22.93200 54.74991 36871 ft 512 kts 73°
2026-04-26 12:47 22.94702 54.82551 36870 ft 512 kts 73°
2026-04-26 12:47 22.96199 54.90110 36871 ft 512 kts 73°
2026-04-26 12:48 22.97691 54.97657 36872 ft 511 kts 73°
2026-04-26 12:48 22.99177 55.05211 36872 ft 511 kts 73°
2026-04-26 12:49 23.00650 55.12707 36868 ft 511 kts 73°
2026-04-26 12:49 23.02704 55.19938 36865 ft 491 kts 52°
2026-04-26 12:49 23.04819 55.22773 36876 ft 477 kts 36°
2026-04-26 12:50 23.07421 55.24951 36872 ft 469 kts 26°
2026-04-26 12:50 23.10302 55.26530 36867 ft 460 kts 13°
2026-04-26 12:50 23.13355 55.27453 36883 ft 454 kts
2026-04-26 12:51 23.19520 55.29134 36879 ft 459 kts
2026-04-26 12:51 23.25721 55.30890 36873 ft 462 kts
2026-04-26 12:52 23.31909 55.32699 36875 ft 465 kts 10°
2026-04-26 12:52 23.38158 55.34541 36867 ft 465 kts
2026-04-26 12:53 23.44407 55.36382 36869 ft 464 kts
2026-04-26 12:53 23.50637 55.38215 36874 ft 463 kts
2026-04-26 12:54 23.56838 55.40051 36882 ft 461 kts
2026-04-26 12:54 23.63022 55.41891 36874 ft 460 kts
2026-04-26 12:55 23.69162 55.43719 36871 ft 460 kts
2026-04-26 12:55 23.75342 55.45559 36878 ft 460 kts
2026-04-26 12:56 23.81517 55.47401 36856 ft 460 kts
2026-04-26 12:56 23.84646 55.48331 36092 ft 471 kts 10°
2026-04-26 12:56 23.87818 55.49275 35362 ft 471 kts
2026-04-26 12:56 23.90980 55.50217 34481 ft 472 kts 10°
2026-04-26 12:57 23.94152 55.51161 33606 ft 473 kts 10°
2026-04-26 12:57 23.97313 55.52205 32695 ft 478 kts 15°
2026-04-26 12:57 24.00367 55.53726 31755 ft 486 kts 24°
2026-04-26 12:58 24.06008 55.57948 30176 ft 495 kts 39°
2026-04-26 12:58 24.08550 55.60475 29535 ft 496 kts 41°
2026-04-26 12:58 24.11099 55.63062 28894 ft 504 kts 41°
2026-04-26 12:58 24.13691 55.65692 28246 ft 511 kts 41°
2026-04-26 12:59 24.16303 55.68324 27588 ft 508 kts 40°
2026-04-26 12:59 24.18896 55.70915 26929 ft 503 kts 40°
2026-04-26 12:59 24.21474 55.73479 26293 ft 497 kts 40°
2026-04-26 12:59 24.23989 55.75972 25666 ft 492 kts 40°
2026-04-26 13:00 24.26518 55.78480 25039 ft 487 kts 40°
2026-04-26 13:00 24.29019 55.80963 24420 ft 482 kts 40°
2026-04-26 13:00 24.31491 55.83420 23815 ft 477 kts 40°
2026-04-26 13:00 24.33938 55.85854 23206 ft 473 kts 40°
2026-04-26 13:01 24.36365 55.88269 22583 ft 469 kts 40°
2026-04-26 13:01 24.38768 55.90662 21988 ft 465 kts 40°
2026-04-26 13:01 24.41150 55.93039 21382 ft 461 kts 40°
2026-04-26 13:01 24.43511 55.95399 20782 ft 456 kts 40°
2026-04-26 13:02 24.45846 55.97735 20198 ft 452 kts 41°
2026-04-26 13:02 24.48162 56.00053 19614 ft 448 kts 41°
2026-04-26 13:02 24.50455 56.02348 19018 ft 444 kts 41°
2026-04-26 13:02 24.52717 56.04615 18448 ft 439 kts 41°
2026-04-26 13:03 24.54975 56.06878 17846 ft 436 kts 41°
2026-04-26 13:03 24.57209 56.09101 17265 ft 430 kts 40°
2026-04-26 13:03 24.59615 56.11008 16688 ft 424 kts 28°
2026-04-26 13:03 24.62278 56.12358 16127 ft 419 kts 18°
2026-04-26 13:04 24.65069 56.13196 15536 ft 414 kts
2026-04-26 13:04 24.67909 56.13655 14973 ft 411 kts
2026-04-26 13:04 24.70729 56.14121 14398 ft 408 kts
2026-04-26 13:04 24.73513 56.14622 13891 ft 403 kts
2026-04-26 13:05 24.76259 56.15101 13385 ft 394 kts
2026-04-26 13:05 24.78948 56.15092 13163 ft 379 kts 351°
2026-04-26 13:05 24.81474 56.14468 12685 ft 369 kts 334°
2026-04-26 13:05 24.83551 56.12958 11938 ft 358 kts 313°
2026-04-26 13:06 24.85025 56.10778 10927 ft 356 kts 298°
2026-04-26 13:06 24.86261 56.08407 10327 ft 350 kts 299°
2026-04-26 13:06 24.87444 56.06176 10095 ft 324 kts 299°
2026-04-26 13:06 24.88538 56.04115 9883 ft 299 kts 300°
2026-04-26 13:07 24.89555 56.02210 9576 ft 277 kts 300°
2026-04-26 13:07 24.90189 56.01022 9394 ft 266 kts 299°
2026-04-26 13:07 24.91113 55.99288 9134 ft 266 kts 300°
2026-04-26 13:07 24.92072 55.97496 8869 ft 276 kts 300°
2026-04-26 13:08 24.93058 55.95649 8445 ft 282 kts 300°
2026-04-26 13:08 24.94357 55.93213 8013 ft 269 kts 300°
2026-04-26 13:08 24.94990 55.92031 7765 ft 264 kts 300°
2026-04-26 13:08 24.95926 55.90285 7364 ft 265 kts 300°
2026-04-26 13:09 24.96865 55.88534 7127 ft 264 kts 300°
2026-04-26 13:09 24.97797 55.86794 6960 ft 262 kts 300°
2026-04-26 13:09 24.98709 55.85095 6764 ft 260 kts 300°
2026-04-26 13:09 24.99623 55.83382 6543 ft 259 kts 301°
2026-04-26 13:10 25.00539 55.81670 6267 ft 257 kts 300°
2026-04-26 13:10 25.01447 55.79972 5947 ft 254 kts 301°
2026-04-26 13:10 25.02322 55.78333 5672 ft 242 kts 301°
2026-04-26 13:10 25.03171 55.76745 5433 ft 236 kts 301°
2026-04-26 13:11 25.03979 55.75193 5046 ft 231 kts 299°
2026-04-26 13:11 25.04755 55.73631 4658 ft 233 kts 300°
2026-04-26 13:11 25.05558 55.72097 4441 ft 228 kts 301°
2026-04-26 13:11 25.06358 55.70620 4262 ft 221 kts 302°
2026-04-26 13:12 25.07150 55.69183 3978 ft 219 kts 302°
2026-04-26 13:12 25.07942 55.67744 3667 ft 219 kts 302°
2026-04-26 13:12 25.08722 55.66338 3418 ft 215 kts 302°
2026-04-26 13:12 25.09489 55.64959 3310 ft 204 kts 302°
2026-04-26 13:13 25.10206 55.63666 3155 ft 192 kts 302°
2026-04-26 13:13 25.10897 55.62419 2823 ft 190 kts 302°
2026-04-26 13:13 25.11587 55.61174 2481 ft 189 kts 302°
2026-04-26 13:13 25.12256 55.59969 2306 ft 180 kts 302°
2026-04-26 13:14 25.12912 55.58786 2144 ft 181 kts 302°
2026-04-26 13:14 25.13569 55.57603 2082 ft 181 kts 302°
2026-04-26 13:14 25.14231 55.56405 2048 ft 184 kts 302°
2026-04-26 13:14 25.14901 55.55195 2005 ft 184 kts 302°
2026-04-26 13:15 25.15557 55.54009 2005 ft 183 kts 301°
2026-04-26 13:15 25.16222 55.52815 2009 ft 183 kts 301°
2026-04-26 13:15 25.16885 55.51616 2001 ft 183 kts 301°
2026-04-26 13:15 25.17521 55.50467 1977 ft 167 kts 301°
2026-04-26 13:16 25.18099 55.49422 1995 ft 152 kts 301°
2026-04-26 13:16 25.18639 55.48448 1901 ft 148 kts 301°
2026-04-26 13:16 25.19173 55.47483 1710 ft 146 kts 301°
2026-04-26 13:16 25.19702 55.46528 1530 ft 146 kts 301°
2026-04-26 13:17 25.20767 55.44603 1115 ft 146 kts 301°
2026-04-26 13:17 25.21288 55.43643 908 ft 145 kts 301°
2026-04-26 13:18 25.22339 55.41752 550 ft 146 kts 302°
2026-04-26 13:18 25.22869 55.40793 334 ft 145 kts 300°
2026-04-26 13:18 25.23920 55.38888 43 ft 143 kts 301°
2026-04-26 13:19 25.24390 55.38043 30 ft 108 kts 302°
2026-04-26 13:19 25.24690 55.37505 27 ft 64 kts 302°
2026-04-26 13:19 25.24779 55.37203 29 ft 25 kts 274°
2026-04-26 13:19 25.24786 55.37100 28 ft 1 kts 273°
2026-04-26 13:20 25.24786 55.37095 28 ft 1 kts 272°
2026-04-26 13:20 25.24786 55.37093 28 ft 1 kts 272°
2026-04-26 13:20 25.24786 55.37092 28 ft 0 kts 272°
2026-04-26 13:21 25.24786 55.37084 28 ft 4 kts 272°
2026-04-26 13:21 25.24787 55.37045 27 ft 11 kts 271°
2026-04-26 13:21 25.24767 55.36959 26 ft 6 kts 223°
2026-04-26 13:21 25.24740 55.36939 25 ft 4 kts 211°
2026-04-26 13:22 25.24693 55.36927 26 ft 11 kts 177°
2026-04-26 13:22 25.24640 55.36942 29 ft 5 kts 164°
2026-04-26 13:22 25.24592 55.36955 30 ft 1 kts 167°
2026-04-26 13:22 25.24565 55.36961 30 ft 0 kts 167°
2026-04-26 13:23 25.24562 55.36962 27 ft 0 kts 167°
2026-04-26 13:23 25.24560 55.36963 26 ft 0 kts 167°
2026-04-26 13:23 25.24557 55.36963 26 ft 0 kts 167°
2026-04-26 13:23 25.24556 55.36963 26 ft 0 kts 167°